Time,TemperatureF,DewpointF,PressureIn,WindDirection,WindDirectionDegrees,WindSpeedMPH,WindSpeedGustMPH,Humidity,HourlyPrecipIn,Conditions,Clouds,dailyrainin,SoftwareType,DateUTC
2013-02-24 00:00:00,44.8,43.5,29.88,West,276,1.0,3.0,95,0.00,RA,,0.00,WeatherDisplay:10.37,2013-02-24 05:00:00,
2013-02-24 00:05:00,44.9,43.3,29.88,WSW,255,2.3,2.3,94,0.00,RA,,0.00,WeatherDisplay:10.37,2013-02-24 05:05:00,
2013-02-24 00:10:00,44.9,43.3,29.88,West,268,1.0,3.0,94,0.00,,,0.00,WeatherDisplay:10.37,2013-02-24 05:10:00,
2013-02-24 00:11:00,44.9,43.3,29.88,WNW,287,3.5,3.5,94,0.00,,,0.00,WeatherDisplay:10.37,2013-02-24 05:11:00,
2013-02-24 00:15:00,45.0,43.4,29.88,WSW,245,2.3,2.3,94,0.00,,,0.00,WeatherDisplay:10.37,2013-02-24 05:15:00,
2013-02-24 00:16:00,44.9,43.3,29.88,WSW,253,3.5,3.5,94,0.00,,,0.00,WeatherDisplay:10.37,2013-02-24 05:16:00,
2013-02-24 00:20:00,45.0,43.4,29.88,WSW,253,4.6,4.6,94,0.00,,,0.00,WeatherDisplay:10.37,2013-02-24 05:20:00,
2013-02-24 00:21:00,45.0,43.4,29.88,WSW,243,4.6,4.6,94,0.00,,,0.00,WeatherDisplay:10.37,2013-02-24 05:21:00,
2013-02-24 00:25:00,45.1,43.5,29.88,WSW,256,3.5,3.5,94,0.00,,,0.00,WeatherDisplay:10.37,2013-02-24 05:25:00,
2013-02-24 00:26:00,45.1,43.5,29.88,West,262,2.3,2.3,94,0.00,,,0.00,WeatherDisplay:10.37,2013-02-24 05:26:00,
2013-02-24 00:29:00,45.1,43.5,29.87,West,262,2.3,2.3,94,0.00,,,0.00,WeatherDisplay:10.37,2013-02-24 05:29:00,
2013-02-24 00:30:00,45.1,43.5,29.87,West,264,1.1,1.1,94,0.00,,,0.00,WeatherDisplay:10.37,2013-02-24 05:30:00,
2013-02-24 00:31:00,45.1,43.2,29.87,West,264,1.1,0.0,93,0.00,,,0.00,WeatherDisplay:10.37,2013-02-24 05:31:00,
2013-02-24 00:32:00,45.1,43.2,29.88,West,264,1.1,1.1,93,0.00,,,0.00,WeatherDisplay:10.37,2013-02-24 05:32:00,
2013-02-24 00:34:00,45.1,43.2,29.88,WNW,286,1.1,1.2,93,0.00,,,0.00,WeatherDisplay:10.37,2013-02-24 05:34:00,
2013-02-24 00:36:00,45.1,43.2,29.88,WNW,287,1.1,1.1,93,0.00,,,0.00,WeatherDisplay:10.37,2013-02-24 05:36:00,
2013-02-24 00:37:00,45.0,43.1,29.88,WNW,288,2.0,2.0,93,0.00,,,0.00,WeatherDisplay:10.37,2013-02-24 05:37:00,
2013-02-24 00:39:00,45.0,43.1,29.88,WNW,300,2.3,2.3,93,0.00,,,0.00,WeatherDisplay:10.37,2013-02-24 05:39:00,
2013-02-24 00:41:00,45.0,43.1,29.89,WNW,296,1.1,0.0,93,0.00,,,0.00,WeatherDisplay:10.37,2013-02-24 05:41:00,
2013-02-24 00:42:00,45.0,43.1,29.89,WNW,297,0.0,0.0,93,0.00,,,0.00,WeatherDisplay:10.37,2013-02-24 05:42:00,
2013-02-24 00:44:00,45.0,43.1,29.89,West,271,1.1,1.1,93,0.00,,,0.00,WeatherDisplay:10.37,2013-02-24 05:44:00,
2013-02-24 00:46:00,44.9,43.0,29.89,West,274,2.3,2.3,93,0.00,,,0.00,WeatherDisplay:10.37,2013-02-24 05:46:00,
2013-02-24 00:47:00,44.9,43.0,29.89,West,267,2.3,2.3,93,0.00,,,0.00,WeatherDisplay:10.37,2013-02-24 05:47:00,
2013-02-24 00:48:00,44.9,43.0,29.88,West,264,2.3,2.3,93,0.00,,,0.00,WeatherDisplay:10.37,2013-02-24 05:48:00,
2013-02-24 00:49:00,44.9,43.0,29.88,West,262,1.1,1.1,93,0.00,,,0.00,WeatherDisplay:10.37,2013-02-24 05:49:00,
2013-02-24 00:52:00,44.9,43.0,29.88,West,262,1.1,1.1,93,0.00,,,0.00,WeatherDisplay:10.37,2013-02-24 05:52:00,
2013-02-24 00:53:00,44.9,43.0,29.88,West,264,2.3,2.3,93,0.00,,,0.00,WeatherDisplay:10.37,2013-02-24 05:53:00,
2013-02-24 00:54:00,44.9,43.0,29.88,West,267,3.5,3.5,93,0.00,,,0.00,WeatherDisplay:10.37,2013-02-24 05:54:00,
2013-02-24 00:57:00,44.9,43.0,29.88,WSW,257,1.0,0.0,93,0.00,,,0.00,WeatherDisplay:10.37,2013-02-24 05:57:00,
2013-02-24 00:58:00,44.9,43.0,29.88,WSW,257,1.1,1.1,93,0.00,,,0.00,WeatherDisplay:10.37,2013-02-24 05:58:00,
2013-02-24 00:59:00,44.9,43.0,29.88,WSW,257,1.1,1.1,93,0.00,,,0.00,WeatherDisplay:10.37,2013-02-24 05:59:00,
2013-02-24 01:02:00,44.9,43.0,29.88,WSW,257,0.0,0.0,93,0.00,CLR,,0.00,WeatherDisplay:10.37,2013-02-24 06:02:00,
2013-02-24 01:03:00,44.8,42.9,29.88,WSW,257,1.1,0.0,93,0.00,CLR,,0.00,WeatherDisplay:10.37,2013-02-24 06:03:00,
2013-02-24 01:04:00,44.8,42.9,29.88,WSW,257,0.0,0.0,93,0.00,CLR,,0.00,WeatherDisplay:10.37,2013-02-24 06:04:00,
2013-02-24 01:08:00,44.7,42.8,29.87,WSW,257,0.0,0.0,93,0.00,CLR,,0.00,WeatherDisplay:10.37,2013-02-24 06:08:00,
2013-02-24 01:09:00,44.6,42.4,29.87,WSW,257,0.0,0.0,92,0.00,CLR,,0.00,WeatherDisplay:10.37,2013-02-24 06:09:00,
2013-02-24 01:13:00,44.4,42.5,29.87,WSW,257,0.0,0.0,93,0.00,CLR,,0.00,WeatherDisplay:10.37,2013-02-24 06:13:00,
2013-02-24 01:14:00,44.3,42.1,29.87,WSW,257,0.0,0.0,92,0.00,CLR,,0.00,WeatherDisplay:10.37,2013-02-24 06:14:00,
2013-02-24 01:18:00,43.9,41.7,29.87,WSW,257,0.0,0.0,92,0.00,CLR,,0.00,WeatherDisplay:10.37,2013-02-24 06:18:00,
2013-02-24 01:19:00,43.7,41.5,29.87,WSW,257,0.0,0.0,92,0.00,CLR,,0.00,WeatherDisplay:10.37,2013-02-24 06:19:00,
2013-02-24 01:20:00,43.8,41.6,29.87,WSW,257,0.0,0.0,92,0.00,CLR,,0.00,WeatherDisplay:10.37,2013-02-24 06:20:00,
2013-02-24 01:23:00,43.2,41.0,29.87,WSW,257,0.0,0.0,92,0.00,CLR,,0.00,WeatherDisplay:10.37,2013-02-24 06:23:00,
2013-02-24 01:24:00,43.1,40.9,29.87,WSW,257,0.0,0.0,92,0.00,CLR,,0.00,WeatherDisplay:10.37,2013-02-24 06:24:00,
2013-02-24 01:25:00,43.1,41.0,29.87,WSW,257,0.0,0.0,92,0.00,CLR,,0.00,WeatherDisplay:10.37,2013-02-24 06:25:00,
2013-02-24 01:28:00,42.5,40.3,29.87,WSW,257,0.0,0.0,92,0.00,CLR,,0.00,WeatherDisplay:10.37,2013-02-24 06:28:00,
2013-02-24 01:30:00,42.3,40.1,29.87,WSW,257,0.0,0.0,92,0.00,CLR,,0.00,WeatherDisplay:10.37,2013-02-24 06:30:00,
2013-02-24 01:31:00,42.2,40.0,29.87,WSW,257,0.0,0.0,92,0.00,CLR,,0.00,WeatherDisplay:10.37,2013-02-24 06:31:00,
2013-02-24 01:33:00,41.8,39.6,29.88,WSW,257,0.0,0.0,92,0.00,CLR,,0.00,WeatherDisplay:10.37,2013-02-24 06:33:00,
2013-02-24 01:35:00,41.6,39.4,29.88,WSW,257,0.0,0.0,92,0.00,CLR,,0.00,WeatherDisplay:10.37,2013-02-24 06:35:00,
2013-02-24 01:36:00,41.6,39.4,29.88,WSW,257,0.0,0.0,92,0.00,CLR,,0.00,WeatherDisplay:10.37,2013-02-24 06:36:00,
2013-02-24 01:38:00,41.2,39.3,29.88,WSW,257,0.0,0.0,93,0.00,CLR,,0.00,WeatherDisplay:10.37,2013-02-24 06:38:00,
2013-02-24 01:40:00,41.1,39.2,29.89,WSW,257,1.1,0.0,93,0.00,CLR,,0.00,WeatherDisplay:10.37,2013-02-24 06:40:00,
2013-02-24 01:41:00,41.1,39.2,29.88,WSW,257,1.1,1.1,93,0.00,CLR,,0.00,WeatherDisplay:10.37,2013-02-24 06:41:00,
2013-02-24 01:44:00,41.1,39.5,29.89,WSW,257,1.1,1.1,94,0.00,CLR,,0.00,WeatherDisplay:10.37,2013-02-24 06:44:00,
2013-02-24 01:45:00,41.1,39.5,29.89,WSW,257,1.1,1.1,94,0.00,CLR,,0.00,WeatherDisplay:10.37,2013-02-24 06:45:00,
2013-02-24 01:46:00,41.1,39.8,29.89,WSW,257,0.0,0.0,95,0.00,CLR,,0.00,WeatherDisplay:10.37,2013-02-24 06:46:00,
2013-02-24 01:49:00,41.2,39.9,29.89,WSW,257,1.1,1.1,95,0.00,CLR,,0.00,WeatherDisplay:10.37,2013-02-24 06:49:00,
2013-02-24 01:50:00,41.3,40.2,29.89,West,259,1.1,1.1,96,0.00,CLR,,0.00,WeatherDisplay:10.37,2013-02-24 06:50:00,
2013-02-24 01:51:00,41.4,40.3,29.89,West,260,1.1,1.1,96,0.00,CLR,,0.00,WeatherDisplay:10.37,2013-02-24 06:51:00,
2013-02-24 01:54:00,41.8,40.7,29.89,WNW,293,3.5,3.5,96,0.00,CLR,,0.00,WeatherDisplay:10.37,2013-02-24 06:54:00,
2013-02-24 01:56:00,42.2,41.4,29.89,West,262,2.3,2.3,97,0.00,CLR,,0.00,WeatherDisplay:10.37,2013-02-24 06:56:00,
2013-02-24 01:57:00,42.2,41.4,29.89,WSW,254,2.3,2.3,97,0.00,CLR,,0.00,WeatherDisplay:10.37,2013-02-24 06:57:00,
2013-02-24 01:59:00,42.6,41.8,29.89,West,262,2.3,2.3,97,0.00,CLR,,0.00,WeatherDisplay:10.37,2013-02-24 06:59:00,
2013-02-24 02:01:00,42.8,42.0,29.89,West,272,2.3,2.3,97,0.00,CLR,,0.00,WeatherDisplay:10.37,2013-02-24 07:01:00,
2013-02-24 02:02:00,42.9,42.1,29.89,WNW,286,2.3,2.3,97,0.00,CLR,,0.00,WeatherDisplay:10.37,2013-02-24 07:02:00,
2013-02-24 02:04:00,42.9,41.8,29.89,NW,307,8.1,8.1,96,0.00,CLR,,0.00,WeatherDisplay:10.37,2013-02-24 07:04:00,
2013-02-24 02:06:00,42.9,41.0,29.89,WSW,248,11.5,11.5,93,0.00,CLR,,0.00,WeatherDisplay:10.37,2013-02-24 07:06:00,
2013-02-24 02:07:00,42.9,40.7,29.89,WSW,257,4.6,4.6,92,0.00,CLR,,0.00,WeatherDisplay:10.37,2013-02-24 07:07:00,
2013-02-24 02:09:00,43.0,39.7,29.90,NW,304,6.9,6.9,88,0.00,CLR,,0.00,WeatherDisplay:10.37,2013-02-24 07:09:00,
2013-02-24 02:11:00,43.1,39.5,29.90,NW,308,4.6,4.6,87,0.00,CLR,,0.00,WeatherDisplay:10.37,2013-02-24 07:11:00,
2013-02-24 02:12:00,43.1,38.9,29.90,WNW,288,9.2,9.2,85,0.00,CLR,,0.00,WeatherDisplay:10.37,2013-02-24 07:12:00,
2013-02-24 02:14:00,43.2,39.0,29.90,WNW,292,2.3,2.3,85,0.00,CLR,,0.00,WeatherDisplay:10.37,2013-02-24 07:14:00,
2013-02-24 02:17:00,43.2,38.7,29.90,West,276,4.6,4.6,84,0.00,CLR,,0.00,WeatherDisplay:10.37,2013-02-24 07:17:00,
2013-02-24 02:19:00,43.1,38.3,29.90,WSW,252,4.0,4.0,83,0.00,CLR,,0.00,WeatherDisplay:10.37,2013-02-24 07:19:00,
2013-02-24 02:22:00,43.1,37.7,29.90,WNW,300,7.0,7.0,81,0.00,CLR,,0.00,WeatherDisplay:10.37,2013-02-24 07:22:00,
2013-02-24 02:24:00,42.9,37.5,29.90,WSW,254,3.5,3.5,81,0.00,CLR,,0.00,WeatherDisplay:10.37,2013-02-24 07:24:00,
2013-02-24 02:27:00,42.8,37.1,29.90,WSW,253,6.9,6.9,80,0.00,CLR,,0.00,WeatherDisplay:10.37,2013-02-24 07:27:00,
2013-02-24 02:28:00,42.8,37.1,29.90,WSW,253,2.3,2.3,80,0.00,CLR,,0.00,WeatherDisplay:10.37,2013-02-24 07:28:00,
2013-02-24 02:30:00,42.7,37.3,29.90,WNW,293,2.3,2.3,81,0.00,CLR,,0.00,WeatherDisplay:10.37,2013-02-24 07:30:00,
2013-02-24 02:32:00,42.5,37.1,29.90,NW,308,3.5,3.5,81,0.00,CLR,,0.00,WeatherDisplay:10.37,2013-02-24 07:32:00,
2013-02-24 02:33:00,42.5,37.1,29.90,NW,308,3.5,0.0,81,0.00,CLR,,0.00,WeatherDisplay:10.37,2013-02-24 07:33:00,
2013-02-24 02:35:00,42.4,37.0,29.89,West,260,1.1,1.1,81,0.00,CLR,,0.00,WeatherDisplay:10.37,2013-02-24 07:35:00,
2013-02-24 02:37:00,42.3,36.9,29.89,West,281,2.3,2.3,81,0.00,CLR,,0.00,WeatherDisplay:10.37,2013-02-24 07:37:00,
2013-02-24 02:38:00,42.3,36.9,29.89,West,281,2.3,2.3,81,0.00,CLR,,0.00,WeatherDisplay:10.37,2013-02-24 07:38:00,
2013-02-24 02:39:00,42.2,36.8,29.89,West,279,1.1,1.1,81,0.00,CLR,,0.00,WeatherDisplay:10.37,2013-02-24 07:39:00,
2013-02-24 02:40:00,42.1,36.7,29.90,West,268,1.1,1.1,81,0.00,CLR,,0.00,WeatherDisplay:10.37,2013-02-24 07:40:00,
2013-02-24 02:43:00,42.0,36.6,29.89,WSW,248,1.1,0.0,81,0.00,CLR,,0.00,WeatherDisplay:10.37,2013-02-24 07:43:00,
2013-02-24 02:44:00,41.9,36.5,29.89,WSW,250,1.1,1.1,81,0.00,CLR,,0.00,WeatherDisplay:10.37,2013-02-24 07:44:00,
2013-02-24 02:45:00,41.9,36.5,29.89,WSW,247,1.1,1.1,81,0.00,CLR,,0.00,WeatherDisplay:10.37,2013-02-24 07:45:00,
2013-02-24 02:48:00,41.7,36.3,29.89,WNW,300,3.0,3.0,81,0.00,CLR,,0.00,WeatherDisplay:10.37,2013-02-24 07:48:00,
2013-02-24 02:50:00,41.6,36.2,29.89,West,270,1.1,0.0,81,0.00,CLR,,0.00,WeatherDisplay:10.37,2013-02-24 07:50:00,
2013-02-24 02:51:00,41.5,36.1,29.89,West,269,0.0,0.0,81,0.00,CLR,,0.00,WeatherDisplay:10.37,2013-02-24 07:51:00,
2013-02-24 02:53:00,41.3,35.9,29.89,West,269,1.1,0.0,81,0.00,CLR,,0.00,WeatherDisplay:10.37,2013-02-24 07:53:00,
2013-02-24 02:55:00,41.2,35.8,29.89,WSW,253,1.1,1.1,81,0.00,CLR,,0.00,WeatherDisplay:10.37,2013-02-24 07:55:00,
2013-02-24 02:56:00,41.2,35.8,29.89,WSW,253,0.0,0.0,81,0.00,CLR,,0.00,WeatherDisplay:10.37,2013-02-24 07:56:00,
2013-02-24 02:58:00,41.0,35.6,29.89,West,279,1.1,1.1,81,0.00,CLR,,0.00,WeatherDisplay:10.37,2013-02-24 07:58:00,
2013-02-24 03:00:00,40.9,35.5,29.89,West,279,0.0,0.0,81,0.00,CLR,,0.00,WeatherDisplay:10.37,2013-02-24 08:00:00,
2013-02-24 03:01:00,40.8,35.7,29.89,West,279,1.1,1.1,82,0.00,CLR,,0.00,WeatherDisplay:10.37,2013-02-24 08:01:00,
2013-02-24 03:03:00,40.6,35.5,29.89,West,279,0.0,0.0,82,0.00,CLR,,0.00,WeatherDisplay:10.37,2013-02-24 08:03:00,
2013-02-24 03:05:00,40.5,35.4,29.89,WSW,249,2.3,2.3,82,0.00,CLR,,0.00,WeatherDisplay:10.37,2013-02-24 08:05:00,
2013-02-24 03:06:00,40.4,35.3,29.89,WSW,250,1.1,0.0,82,0.00,CLR,,0.00,WeatherDisplay:10.37,2013-02-24 08:06:00,
2013-02-24 03:08:00,40.3,35.2,29.89,West,262,1.1,1.1,82,0.00,CLR,,0.00,WeatherDisplay:10.37,2013-02-24 08:08:00,
2013-02-24 03:10:00,40.3,35.2,29.89,West,263,1.1,0.0,82,0.00,CLR,,0.00,WeatherDisplay:10.37,2013-02-24 08:10:00,
2013-02-24 03:11:00,40.2,35.1,29.89,West,263,0.0,0.0,82,0.00,CLR,,0.00,WeatherDisplay:10.37,2013-02-24 08:11:00,
2013-02-24 03:13:00,40.1,35.4,29.89,West,262,0.0,0.0,83,0.00,CLR,,0.00,WeatherDisplay:10.37,2013-02-24 08:13:00,
2013-02-24 03:15:00,39.9,35.2,29.89,West,263,0.0,0.1,83,0.00,CLR,,0.00,WeatherDisplay:10.37,2013-02-24 08:15:00,
2013-02-24 03:16:00,39.9,35.2,29.90,West,262,1.1,1.1,83,0.00,CLR,,0.00,WeatherDisplay:10.37,2013-02-24 08:16:00,
2013-02-24 03:18:00,39.7,35.0,29.90,WSW,254,2.3,2.3,83,0.00,CLR,,0.00,WeatherDisplay:10.37,2013-02-24 08:18:00,
2013-02-24 03:21:00,39.6,34.9,29.90,WSW,257,2.3,2.3,83,0.00,CLR,,0.00,WeatherDisplay:10.37,2013-02-24 08:21:00,
2013-02-24 03:22:00,39.6,34.9,29.90,WSW,257,2.3,2.3,83,0.00,CLR,,0.00,WeatherDisplay:10.37,2013-02-24 08:22:00,
2013-02-24 03:23:00,39.6,34.9,29.90,WSW,249,2.3,2.3,83,0.00,CLR,,0.00,WeatherDisplay:10.37,2013-02-24 08:23:00,
2013-02-24 03:26:00,39.7,34.7,29.90,West,270,1.1,1.1,82,0.00,CLR,,0.00,WeatherDisplay:10.37,2013-02-24 08:26:00,
2013-02-24 03:27:00,39.7,34.7,29.90,WSW,253,2.3,2.3,82,0.00,CLR,,0.00,WeatherDisplay:10.37,2013-02-24 08:27:00,
2013-02-24 03:28:00,39.7,34.7,29.90,West,259,3.5,3.5,82,0.00,CLR,,0.00,WeatherDisplay:10.37,2013-02-24 08:28:00,
2013-02-24 03:31:00,39.6,34.6,29.90,WSW,257,2.3,2.3,82,0.00,CLR,,0.00,WeatherDisplay:10.37,2013-02-24 08:31:00,
2013-02-24 03:32:00,39.6,34.6,29.90,WSW,258,2.3,2.3,82,0.00,CLR,,0.00,WeatherDisplay:10.37,2013-02-24 08:32:00,
2013-02-24 03:33:00,39.5,34.5,29.90,WNW,283,1.1,1.1,82,0.00,CLR,,0.00,WeatherDisplay:10.37,2013-02-24 08:33:00,
2013-02-24 03:34:00,39.4,34.4,29.90,WNW,283,1.1,1.1,82,0.00,CLR,,0.00,WeatherDisplay:10.37,2013-02-24 08:34:00,
2013-02-24 03:36:00,39.1,34.1,29.90,WSW,243,2.0,2.0,82,0.00,CLR,,0.00,WeatherDisplay:10.37,2013-02-24 08:36:00,
2013-02-24 03:37:00,39.1,34.1,29.90,WSW,258,3.5,3.5,82,0.00,CLR,,0.00,WeatherDisplay:10.37,2013-02-24 08:37:00,
2013-02-24 03:38:00,39.1,34.1,29.90,WSW,258,2.3,2.3,82,0.00,CLR,,0.00,WeatherDisplay:10.37,2013-02-24 08:38:00,
2013-02-24 03:39:00,39.0,34.0,29.90,WNW,293,1.1,1.1,82,0.00,CLR,,0.00,WeatherDisplay:10.37,2013-02-24 08:39:00,
2013-02-24 03:41:00,38.8,33.8,29.90,WNW,288,1.1,1.1,82,0.00,CLR,,0.00,WeatherDisplay:10.37,2013-02-24 08:41:00,
2013-02-24 03:42:00,38.8,33.8,29.90,WNW,288,1.1,1.1,82,0.00,CLR,,0.00,WeatherDisplay:10.37,2013-02-24 08:42:00,
2013-02-24 03:43:00,38.7,33.7,29.90,WNW,288,1.1,1.1,82,0.00,CLR,,0.00,WeatherDisplay:10.37,2013-02-24 08:43:00,
2013-02-24 03:44:00,38.7,33.7,29.90,WNW,288,1.1,1.1,82,0.00,CLR,,0.00,WeatherDisplay:10.37,2013-02-24 08:44:00,
2013-02-24 03:47:00,38.5,33.5,29.90,WSW,255,3.5,3.5,82,0.00,CLR,,0.00,WeatherDisplay:10.37,2013-02-24 08:47:00,
2013-02-24 03:48:00,38.4,33.4,29.90,WSW,255,1.1,1.1,82,0.00,CLR,,0.00,WeatherDisplay:10.37,2013-02-24 08:48:00,
2013-02-24 03:50:00,38.4,33.4,29.90,WSW,255,0.0,0.0,82,0.00,CLR,,0.00,WeatherDisplay:10.37,2013-02-24 08:50:00,
2013-02-24 03:52:00,38.2,33.2,29.90,WSW,255,1.1,1.1,82,0.00,CLR,,0.00,WeatherDisplay:10.37,2013-02-24 08:52:00,
2013-02-24 03:53:00,38.1,33.1,29.90,WSW,255,1.1,1.1,82,0.00,CLR,,0.00,WeatherDisplay:10.37,2013-02-24 08:53:00,
2013-02-24 03:55:00,37.9,32.9,29.90,WSW,255,2.3,2.3,82,0.00,CLR,,0.00,WeatherDisplay:10.37,2013-02-24 08:55:00,
2013-02-24 03:57:00,37.9,32.9,29.89,WSW,257,1.1,1.1,82,0.00,CLR,,0.00,WeatherDisplay:10.37,2013-02-24 08:57:00,
2013-02-24 03:58:00,37.9,32.9,29.89,WSW,257,1.1,1.1,82,0.00,CLR,,0.00,WeatherDisplay:10.37,2013-02-24 08:58:00,
2013-02-24 04:00:00,37.8,32.8,29.89,WSW,256,0.0,1.0,82,0.00,CLR,,0.00,WeatherDisplay:10.37,2013-02-24 09:00:00,
2013-02-24 04:01:00,37.7,32.7,29.89,WSW,257,0.0,0.0,82,0.00,CLR,,0.00,WeatherDisplay:10.37,2013-02-24 09:01:00,
2013-02-24 04:02:00,37.6,32.6,29.89,WSW,257,0.0,0.0,82,0.00,CLR,,0.00,WeatherDisplay:10.37,2013-02-24 09:02:00,
2013-02-24 04:03:00,37.6,32.6,29.89,WSW,257,0.0,0.0,82,0.00,CLR,,0.00,WeatherDisplay:10.37,2013-02-24 09:03:00,
2013-02-24 04:05:00,37.4,32.4,29.89,WSW,257,0.0,0.0,82,0.00,CLR,,0.00,WeatherDisplay:10.37,2013-02-24 09:05:00,
2013-02-24 04:06:00,37.3,32.3,29.89,WSW,257,0.0,0.0,82,0.00,CLR,,0.00,WeatherDisplay:10.37,2013-02-24 09:06:00,
2013-02-24 04:07:00,37.2,32.5,29.89,WSW,257,0.0,0.0,83,0.00,CLR,,0.00,WeatherDisplay:10.37,2013-02-24 09:07:00,
2013-02-24 04:08:00,37.1,32.4,29.89,WSW,257,0.0,0.0,83,0.00,CLR,,0.00,WeatherDisplay:10.37,2013-02-24 09:08:00,
2013-02-24 04:11:00,36.8,32.1,29.89,WSW,257,0.0,0.0,83,0.00,CLR,,0.00,WeatherDisplay:10.37,2013-02-24 09:11:00,
2013-02-24 04:12:00,36.7,32.3,29.89,WSW,257,0.0,0.0,84,0.00,CLR,,0.00,WeatherDisplay:10.37,2013-02-24 09:12:00,
2013-02-24 04:13:00,36.6,32.2,29.89,WSW,257,1.1,0.0,84,0.00,CLR,,0.00,WeatherDisplay:10.37,2013-02-24 09:13:00,
2013-02-24 04:16:00,36.2,31.8,29.90,West,279,2.3,2.3,84,0.00,CLR,,0.00,WeatherDisplay:10.37,2013-02-24 09:16:00,
2013-02-24 04:18:00,36.1,32.0,29.90,West,265,1.1,1.1,85,0.00,CLR,,0.00,WeatherDisplay:10.37,2013-02-24 09:18:00,
2013-02-24 04:21:00,35.7,31.6,29.90,West,265,0.0,0.0,85,0.00,CLR,,0.00,WeatherDisplay:10.37,2013-02-24 09:21:00,
2013-02-24 04:22:00,35.6,31.5,29.90,West,266,1.0,0.0,85,0.00,CLR,,0.00,WeatherDisplay:10.37,2013-02-24 09:22:00,
2013-02-24 04:23:00,35.5,31.7,29.90,West,266,1.1,1.1,86,0.00,CLR,,0.00,WeatherDisplay:10.37,2013-02-24 09:23:00,
2013-02-24 04:26:00,35.3,31.5,29.90,WSW,251,3.5,3.5,86,0.00,CLR,,0.00,WeatherDisplay:10.37,2013-02-24 09:26:00,
2013-02-24 04:27:00,35.4,31.6,29.90,WSW,250,2.3,2.3,86,0.00,CLR,,0.00,WeatherDisplay:10.37,2013-02-24 09:27:00,
2013-02-24 04:28:00,35.4,31.6,29.90,WSW,258,2.0,2.0,86,0.00,CLR,,0.00,WeatherDisplay:10.37,2013-02-24 09:28:00,
2013-02-24 04:31:00,35.4,31.3,29.91,West,264,3.5,3.5,85,0.00,CLR,,0.00,WeatherDisplay:10.37,2013-02-24 09:31:00,
2013-02-24 04:33:00,35.3,31.2,29.91,West,275,1.1,1.1,85,0.00,CLR,,0.00,WeatherDisplay:10.37,2013-02-24 09:33:00,
2013-02-24 04:34:00,35.3,31.2,29.91,West,276,1.1,1.1,85,0.00,CLR,,0.00,WeatherDisplay:10.37,2013-02-24 09:34:00,
2013-02-24 04:36:00,35.2,31.4,29.91,West,276,1.1,1.1,86,0.00,CLR,,0.00,WeatherDisplay:10.37,2013-02-24 09:36:00,
2013-02-24 04:38:00,35.2,31.4,29.91,West,277,1.1,1.1,86,0.00,CLR,,0.00,WeatherDisplay:10.37,2013-02-24 09:38:00,
2013-02-24 04:39:00,35.2,31.4,29.90,West,276,1.1,0.0,86,0.00,CLR,,0.00,WeatherDisplay:10.37,2013-02-24 09:39:00,
2013-02-24 04:42:00,35.2,31.1,29.91,West,276,0.0,0.0,85,0.00,CLR,,0.00,WeatherDisplay:10.37,2013-02-24 09:42:00,
2013-02-24 04:43:00,35.2,31.1,29.91,West,276,1.1,0.0,85,0.00,CLR,,0.00,WeatherDisplay:10.37,2013-02-24 09:43:00,
2013-02-24 04:44:00,35.2,31.1,29.90,West,276,0.0,0.0,85,0.00,CLR,,0.00,WeatherDisplay:10.37,2013-02-24 09:44:00,
2013-02-24 04:47:00,35.1,31.0,29.91,West,276,0.0,0.0,85,0.00,CLR,,0.00,WeatherDisplay:10.37,2013-02-24 09:47:00,
2013-02-24 04:48:00,35.1,31.0,29.91,West,276,0.0,0.0,85,0.00,CLR,,0.00,WeatherDisplay:10.37,2013-02-24 09:48:00,
2013-02-24 04:49:00,35.0,30.9,29.91,West,277,0.0,0.0,85,0.00,CLR,,0.00,WeatherDisplay:10.37,2013-02-24 09:49:00,
2013-02-24 04:53:00,34.7,30.9,29.91,West,276,0.0,0.0,86,0.00,CLR,,0.00,WeatherDisplay:10.37,2013-02-24 09:53:00,
2013-02-24 04:54:00,34.7,30.9,29.91,West,276,0.0,0.0,86,0.00,CLR,,0.00,WeatherDisplay:10.37,2013-02-24 09:54:00,
2013-02-24 04:55:00,34.6,30.8,29.91,West,276,0.0,0.0,86,0.00,CLR,,0.00,WeatherDisplay:10.37,2013-02-24 09:55:00,
2013-02-24 04:58:00,34.4,30.6,29.91,West,276,0.0,0.0,86,0.00,CLR,,0.00,WeatherDisplay:10.37,2013-02-24 09:58:00,
2013-02-24 04:59:00,34.3,30.5,29.91,West,276,0.0,0.0,86,0.00,CLR,,0.00,WeatherDisplay:10.37,2013-02-24 09:59:00,
2013-02-24 05:00:00,34.2,30.4,29.91,West,277,0.0,0.0,86,0.00,CLR,,0.00,WeatherDisplay:10.37,2013-02-24 10:00:00,
2013-02-24 05:03:00,33.9,30.4,29.91,West,276,0.0,0.0,87,0.00,CLR,,0.00,WeatherDisplay:10.37,2013-02-24 10:03:00,
2013-02-24 05:04:00,33.8,30.3,29.92,West,276,1.1,0.0,87,0.00,CLR,,0.00,WeatherDisplay:10.37,2013-02-24 10:04:00,
2013-02-24 05:05:00,33.8,30.3,29.92,West,276,1.1,0.0,87,0.00,CLR,,0.00,WeatherDisplay:10.37,2013-02-24 10:05:00,
2013-02-24 05:09:00,33.5,30.3,29.92,West,276,0.0,0.0,88,0.00,CLR,,0.00,WeatherDisplay:10.37,2013-02-24 10:09:00,
2013-02-24 05:10:00,33.5,30.3,29.93,West,276,0.0,0.0,88,0.00,CLR,,0.00,WeatherDisplay:10.37,2013-02-24 10:10:00,
2013-02-24 05:11:00,33.5,30.6,29.93,West,277,0.0,0.0,89,0.00,CLR,,0.00,WeatherDisplay:10.37,2013-02-24 10:11:00,
2013-02-24 05:14:00,33.5,30.6,29.93,West,276,0.0,0.0,89,0.00,CLR,,0.00,WeatherDisplay:10.37,2013-02-24 10:14:00,
2013-02-24 05:15:00,33.5,30.6,29.93,West,276,1.1,1.1,89,0.00,CLR,,0.00,WeatherDisplay:10.37,2013-02-24 10:15:00,
2013-02-24 05:16:00,33.5,30.6,29.93,West,281,1.1,1.1,89,0.00,CLR,,0.00,WeatherDisplay:10.37,2013-02-24 10:16:00,
2013-02-24 05:17:00,33.5,30.6,29.94,WNW,293,2.0,2.0,89,0.00,CLR,,0.00,WeatherDisplay:10.37,2013-02-24 10:17:00,
2013-02-24 05:19:00,33.6,30.7,29.94,WSW,245,1.1,1.1,89,0.00,CLR,,0.00,WeatherDisplay:10.37,2013-02-24 10:19:00,
2013-02-24 05:20:00,33.7,30.8,29.94,WSW,245,1.1,0.0,89,0.00,CLR,,0.00,WeatherDisplay:10.37,2013-02-24 10:20:00,
2013-02-24 05:21:00,33.7,30.8,29.94,WNW,302,1.1,1.1,89,0.00,CLR,,0.00,WeatherDisplay:10.37,2013-02-24 10:21:00,
2013-02-24 05:22:00,33.8,30.9,29.93,WNW,300,1.1,1.1,89,0.00,CLR,,0.00,WeatherDisplay:10.37,2013-02-24 10:22:00,
2013-02-24 05:24:00,34.0,31.1,29.93,West,270,2.3,2.3,89,0.00,CLR,,0.00,WeatherDisplay:10.37,2013-02-24 10:24:00,
2013-02-24 05:26:00,34.1,31.2,29.94,WNW,283,1.1,1.1,89,0.00,CLR,,0.00,WeatherDisplay:10.37,2013-02-24 10:26:00,
2013-02-24 05:27:00,34.3,31.4,29.94,West,269,2.3,2.3,89,0.00,CLR,,0.00,WeatherDisplay:10.37,2013-02-24 10:27:00,
2013-02-24 05:30:00,34.6,31.4,29.94,West,268,1.0,3.0,88,0.00,CLR,,0.00,WeatherDisplay:10.37,2013-02-24 10:30:00,
2013-02-24 05:31:00,34.9,31.4,29.94,West,271,1.1,1.1,87,0.00,CLR,,0.00,WeatherDisplay:10.37,2013-02-24 10:31:00,
2013-02-24 05:32:00,35.0,31.5,29.94,WSW,254,1.1,1.1,87,0.00,CLR,,0.00,WeatherDisplay:10.37,2013-02-24 10:32:00,
2013-02-24 05:33:00,35.1,31.6,29.94,WSW,245,3.5,3.5,87,0.00,CLR,,0.00,WeatherDisplay:10.37,2013-02-24 10:33:00,
2013-02-24 05:35:00,35.3,31.8,29.94,West,270,0.0,4.0,87,0.00,CLR,,0.00,WeatherDisplay:10.37,2013-02-24 10:35:00,
2013-02-24 05:36:00,35.6,31.8,29.95,West,276,1.1,1.1,86,0.00,CLR,,0.00,WeatherDisplay:10.37,2013-02-24 10:36:00,
2013-02-24 05:37:00,35.7,31.9,29.95,West,276,0.0,0.1,86,0.00,CLR,,0.00,WeatherDisplay:10.37,2013-02-24 10:37:00,
2013-02-24 05:38:00,35.7,31.9,29.95,West,264,2.3,2.3,86,0.00,CLR,,0.00,WeatherDisplay:10.37,2013-02-24 10:38:00,
2013-02-24 05:41:00,35.9,31.8,29.95,WSW,256,3.5,3.5,85,0.00,CLR,,0.00,WeatherDisplay:10.37,2013-02-24 10:41:00,
2013-02-24 05:43:00,36.1,32.0,29.96,West,263,2.0,2.0,85,0.00,CLR,,0.00,WeatherDisplay:10.37,2013-02-24 10:43:00,
2013-02-24 05:46:00,36.3,31.9,29.96,West,261,3.5,3.5,84,0.00,CLR,,0.00,WeatherDisplay:10.37,2013-02-24 10:46:00,
2013-02-24 05:47:00,36.3,31.9,29.96,WSW,257,2.3,2.3,84,0.00,CLR,,0.00,WeatherDisplay:10.37,2013-02-24 10:47:00,
2013-02-24 05:48:00,36.4,32.0,29.96,WNW,301,2.3,2.3,84,0.00,CLR,,0.00,WeatherDisplay:10.37,2013-02-24 10:48:00,
2013-02-24 05:51:00,36.5,32.1,29.96,WSW,258,3.5,3.5,84,0.00,CLR,,0.00,WeatherDisplay:10.37,2013-02-24 10:51:00,
2013-02-24 05:52:00,36.5,31.8,29.96,WSW,253,6.0,6.0,83,0.00,CLR,,0.00,WeatherDisplay:10.37,2013-02-24 10:52:00,
2013-02-24 05:53:00,36.6,31.9,29.96,WSW,248,5.8,5.8,83,0.00,CLR,,0.00,WeatherDisplay:10.37,2013-02-24 10:53:00,
2013-02-24 05:54:00,36.6,31.9,29.96,WNW,296,5.8,5.8,83,0.00,CLR,,0.00,WeatherDisplay:10.37,2013-02-24 10:54:00,
2013-02-24 05:56:00,36.7,32.0,29.96,West,264,3.5,3.5,83,0.00,CLR,,0.00,WeatherDisplay:10.37,2013-02-24 10:56:00,
2013-02-24 05:58:00,36.8,31.8,29.96,WSW,256,3.5,3.5,82,0.00,CLR,,0.00,WeatherDisplay:10.37,2013-02-24 10:58:00,
2013-02-24 05:59:00,36.9,31.6,29.96,NW,309,4.6,4.6,81,0.00,CLR,,0.00,WeatherDisplay:10.37,2013-02-24 10:59:00,
2013-02-24 06:01:00,37.0,31.7,29.96,WNW,286,3.5,0.0,81,0.00,CLR,,0.00,WeatherDisplay:10.37,2013-02-24 11:01:00,
2013-02-24 06:03:00,37.1,31.5,29.96,West,262,5.8,5.8,80,0.00,CLR,,0.00,WeatherDisplay:10.37,2013-02-24 11:03:00,
2013-02-24 06:04:00,37.1,31.2,29.96,West,281,3.5,3.5,79,0.00,CLR,,0.00,WeatherDisplay:10.37,2013-02-24 11:04:00,
2013-02-24 06:06:00,37.1,31.5,29.96,WSW,255,3.5,3.5,80,0.00,CLR,,0.00,WeatherDisplay:10.37,2013-02-24 11:06:00,
2013-02-24 06:08:00,37.1,31.2,29.96,WNW,283,1.1,1.1,79,0.00,CLR,,0.00,WeatherDisplay:10.37,2013-02-24 11:08:00,
2013-02-24 06:09:00,37.1,31.2,29.96,West,273,3.5,3.5,79,0.00,CLR,,0.00,WeatherDisplay:10.37,2013-02-24 11:09:00,
2013-02-24 06:12:00,37.0,31.1,29.96,WSW,255,3.5,3.5,79,0.00,CLR,,0.00,WeatherDisplay:10.37,2013-02-24 11:12:00,
2013-02-24 06:13:00,37.0,31.1,29.96,WSW,254,1.1,1.1,79,0.00,CLR,,0.00,WeatherDisplay:10.37,2013-02-24 11:13:00,
2013-02-24 06:14:00,36.9,31.0,29.96,West,267,3.5,3.5,79,0.00,CLR,,0.00,WeatherDisplay:10.37,2013-02-24 11:14:00,
2013-02-24 06:17:00,36.9,30.7,29.96,WNW,293,2.3,2.3,78,0.00,CLR,,0.00,WeatherDisplay:10.37,2013-02-24 11:17:00,
2013-02-24 06:18:00,36.8,30.9,29.96,West,265,1.1,1.1,79,0.00,CLR,,0.00,WeatherDisplay:10.37,2013-02-24 11:18:00,
2013-02-24 06:19:00,36.8,30.9,29.96,West,264,1.1,1.1,79,0.00,CLR,,0.00,WeatherDisplay:10.37,2013-02-24 11:19:00,
2013-02-24 06:20:00,36.8,30.9,29.96,WNW,282,0.0,4.0,79,0.00,CLR,,0.00,WeatherDisplay:10.37,2013-02-24 11:20:00,
2013-02-24 06:22:00,36.7,30.8,29.96,WNW,283,1.1,1.1,79,0.00,CLR,,0.00,WeatherDisplay:10.37,2013-02-24 11:22:00,
2013-02-24 06:23:00,36.6,30.7,29.96,WNW,283,1.1,1.1,79,0.00,CLR,,0.00,WeatherDisplay:10.37,2013-02-24 11:23:00,
2013-02-24 06:24:00,36.6,30.7,29.96,WNW,297,2.0,2.0,79,0.00,CLR,,0.00,WeatherDisplay:10.37,2013-02-24 11:24:00,
2013-02-24 06:25:00,36.5,30.3,29.96,WNW,298,3.5,3.5,78,0.00,CLR,,0.00,WeatherDisplay:10.37,2013-02-24 11:25:00,
2013-02-24 06:27:00,36.5,30.6,29.96,WNW,283,1.1,1.1,79,0.00,CLR,,0.00,WeatherDisplay:10.37,2013-02-24 11:27:00,
2013-02-24 06:28:00,36.4,30.5,29.96,WSW,257,3.0,3.0,79,0.00,CLR,,0.00,WeatherDisplay:10.37,2013-02-24 11:28:00,
2013-02-24 06:29:00,36.4,30.5,29.96,WSW,253,4.6,4.6,79,0.00,CLR,,0.00,WeatherDisplay:10.37,2013-02-24 11:29:00,
2013-02-24 06:30:00,36.4,30.5,29.96,WNW,302,2.3,2.3,79,0.00,CLR,,0.00,WeatherDisplay:10.37,2013-02-24 11:30:00,
2013-02-24 06:33:00,36.3,30.4,29.97,WSW,243,2.3,2.3,79,0.00,CLR,,0.00,WeatherDisplay:10.37,2013-02-24 11:33:00,
2013-02-24 06:34:00,36.2,30.3,29.97,West,278,3.0,3.0,79,0.00,CLR,,0.00,WeatherDisplay:10.37,2013-02-24 11:34:00,
2013-02-24 06:35:00,36.2,30.3,29.97,WNW,298,3.5,3.5,79,0.00,CLR,,0.00,WeatherDisplay:10.37,2013-02-24 11:35:00,
2013-02-24 06:38:00,36.0,30.4,29.97,West,275,1.1,0.0,80,0.00,CLR,,0.00,WeatherDisplay:10.37,2013-02-24 11:38:00,
2013-02-24 06:39:00,35.9,30.3,29.97,West,275,1.1,1.1,80,0.00,CLR,,0.00,WeatherDisplay:10.37,2013-02-24 11:39:00,
2013-02-24 06:40:00,35.8,30.2,29.97,West,275,1.1,1.1,80,0.00,CLR,,0.00,WeatherDisplay:10.37,2013-02-24 11:40:00,
2013-02-24 06:43:00,35.6,30.0,29.97,West,273,1.1,1.1,80,0.00,CLR,,0.00,WeatherDisplay:10.37,2013-02-24 11:43:00,
2013-02-24 06:45:00,35.5,29.9,29.97,West,272,1.1,1.1,80,0.00,CLR,,0.00,WeatherDisplay:10.37,2013-02-24 11:45:00,
2013-02-24 06:48:00,35.2,30.0,29.97,WNW,293,2.3,2.3,81,0.00,CLR,,0.00,WeatherDisplay:10.37,2013-02-24 11:48:00,
2013-02-24 06:50:00,35.1,29.9,29.97,WNW,284,1.0,2.0,81,0.00,CLR,,0.00,WeatherDisplay:10.37,2013-02-24 11:50:00,
2013-02-24 06:51:00,35.0,29.8,29.97,WNW,289,2.3,2.3,81,0.00,CLR,,0.00,WeatherDisplay:10.37,2013-02-24 11:51:00,
2013-02-24 06:53:00,34.9,29.7,29.98,WNW,293,1.1,1.1,81,0.00,CLR,,0.00,WeatherDisplay:10.37,2013-02-24 11:53:00,
2013-02-24 06:55:00,34.8,29.9,29.98,West,279,1.1,1.1,82,0.00,CLR,,0.00,WeatherDisplay:10.37,2013-02-24 11:55:00,
2013-02-24 06:56:00,34.7,29.8,29.98,West,279,1.1,1.1,82,0.00,CLR,,0.00,WeatherDisplay:10.37,2013-02-24 11:56:00,
2013-02-24 06:59:00,34.4,29.5,29.98,West,274,1.1,1.1,82,0.00,CLR,,0.00,WeatherDisplay:10.37,2013-02-24 11:59:00,
2013-02-24 07:00:00,34.3,29.4,29.98,West,274,1.1,1.1,82,0.00,CLR,,0.00,WeatherDisplay:10.37,2013-02-24 12:00:00,
2013-02-24 07:02:00,34.1,29.2,29.98,West,275,1.1,1.1,82,0.00,CLR,,0.00,WeatherDisplay:10.37,2013-02-24 12:02:00,
2013-02-24 07:05:00,34.0,29.1,29.98,WSW,252,2.3,2.3,82,0.00,CLR,,0.00,WeatherDisplay:10.37,2013-02-24 12:05:00,
2013-02-24 07:07:00,33.9,29.0,29.99,WSW,249,1.1,1.1,82,0.00,CLR,,0.00,WeatherDisplay:10.37,2013-02-24 12:07:00,
2013-02-24 07:10:00,33.7,28.8,29.99,WSW,257,1.1,1.1,82,0.00,CLR,,0.00,WeatherDisplay:10.37,2013-02-24 12:10:00,
2013-02-24 07:11:00,33.7,28.8,29.99,WSW,257,1.1,1.1,82,0.00,CLR,,0.00,WeatherDisplay:10.37,2013-02-24 12:11:00,
2013-02-24 07:12:00,33.6,28.7,29.99,WSW,257,1.1,1.1,82,0.00,CLR,,0.00,WeatherDisplay:10.37,2013-02-24 12:12:00,
2013-02-24 07:15:00,33.5,28.6,29.99,WSW,257,3.5,3.5,82,0.00,CLR,,0.00,WeatherDisplay:10.37,2013-02-24 12:15:00,
2013-02-24 07:16:00,33.6,28.7,29.99,WSW,255,3.5,3.5,82,0.00,CLR,,0.00,WeatherDisplay:10.37,2013-02-24 12:16:00,
2013-02-24 07:17:00,33.6,28.4,29.99,West,267,3.5,3.5,81,0.00,CLR,,0.00,WeatherDisplay:10.37,2013-02-24 12:17:00,
2013-02-24 07:21:00,33.7,28.5,29.99,West,263,1.1,0.0,81,0.00,CLR,,0.00,WeatherDisplay:10.37,2013-02-24 12:21:00,
2013-02-24 07:22:00,33.7,28.5,29.99,West,263,1.0,1.0,81,0.00,CLR,,0.00,WeatherDisplay:10.37,2013-02-24 12:22:00,
2013-02-24 07:26:00,33.6,28.4,30.00,WSW,255,3.5,3.5,81,0.00,CLR,,0.00,WeatherDisplay:10.37,2013-02-24 12:26:00,
2013-02-24 07:27:00,33.6,28.4,30.00,WSW,255,3.5,3.5,81,0.00,CLR,,0.00,WeatherDisplay:10.37,2013-02-24 12:27:00,
2013-02-24 07:31:00,33.5,28.3,30.00,WSW,254,3.5,3.5,81,0.00,CLR,,0.00,WeatherDisplay:10.37,2013-02-24 12:31:00,
2013-02-24 07:32:00,33.5,28.3,30.00,WSW,249,3.0,3.0,81,0.00,CLR,,0.00,WeatherDisplay:10.37,2013-02-24 12:32:00,
2013-02-24 07:36:00,33.4,28.2,30.00,WNW,286,3.5,3.5,81,0.00,CLR,,0.00,WeatherDisplay:10.37,2013-02-24 12:36:00,
2013-02-24 07:37:00,33.4,28.2,30.00,West,265,1.1,1.1,81,0.00,CLR,,0.00,WeatherDisplay:10.37,2013-02-24 12:37:00,
2013-02-24 07:38:00,33.3,28.1,30.00,WSW,254,2.0,2.0,81,0.00,CLR,,0.00,WeatherDisplay:10.37,2013-02-24 12:38:00,
2013-02-24 07:42:00,33.3,28.1,30.00,West,269,1.1,1.1,81,0.00,CLR,,0.00,WeatherDisplay:10.37,2013-02-24 12:42:00,
2013-02-24 07:43:00,33.3,28.4,30.00,West,271,1.1,1.1,82,0.00,CLR,,0.00,WeatherDisplay:10.37,2013-02-24 12:43:00,
2013-02-24 07:47:00,33.2,28.3,30.00,West,265,2.0,2.0,82,0.00,CLR,,0.00,WeatherDisplay:10.37,2013-02-24 12:47:00,
2013-02-24 07:48:00,33.2,28.3,30.00,West,265,3.5,3.5,82,0.00,CLR,,0.00,WeatherDisplay:10.37,2013-02-24 12:48:00,
2013-02-24 07:52:00,33.4,28.2,30.00,WNW,289,1.1,1.2,81,0.00,CLR,,0.00,WeatherDisplay:10.37,2013-02-24 12:52:00,
2013-02-24 07:53:00,33.5,28.3,30.00,WNW,289,3.5,3.5,81,0.00,CLR,,0.00,WeatherDisplay:10.37,2013-02-24 12:53:00,
2013-02-24 07:54:00,33.5,28.3,30.00,WNW,289,2.3,2.3,81,0.00,CLR,,0.00,WeatherDisplay:10.37,2013-02-24 12:54:00,
2013-02-24 07:57:00,33.8,28.3,30.00,West,264,1.1,1.1,80,0.00,CLR,,0.00,WeatherDisplay:10.37,2013-02-24 12:57:00,
2013-02-24 07:58:00,33.9,28.4,30.00,West,264,1.1,1.1,80,0.00,CLR,,0.00,WeatherDisplay:10.37,2013-02-24 12:58:00,
2013-02-24 07:59:00,33.9,28.4,30.00,West,276,1.1,1.1,80,0.00,CLR,,0.00,WeatherDisplay:10.37,2013-02-24 12:59:00,
2013-02-24 08:02:00,34.3,28.8,30.00,WSW,252,1.1,1.1,80,0.00,CLR,,0.00,WeatherDisplay:10.37,2013-02-24 13:02:00,
2013-02-24 08:03:00,34.3,28.5,30.00,West,279,2.3,2.3,79,0.00,CLR,,0.00,WeatherDisplay:10.37,2013-02-24 13:03:00,
2013-02-24 08:04:00,34.5,28.7,30.00,WNW,301,3.5,3.5,79,0.00,CLR,,0.00,WeatherDisplay:10.37,2013-02-24 13:04:00,
2013-02-24 08:07:00,34.9,28.7,30.00,WNW,288,3.5,3.5,78,0.00,CLR,,0.00,WeatherDisplay:10.37,2013-02-24 13:07:00,
2013-02-24 08:08:00,35.1,28.9,30.00,West,259,4.0,4.0,78,0.00,CLR,,0.00,WeatherDisplay:10.37,2013-02-24 13:08:00,
2013-02-24 08:09:00,35.2,28.7,30.00,West,275,4.6,4.6,77,0.00,CLR,,0.00,WeatherDisplay:10.37,2013-02-24 13:09:00,
2013-02-24 08:12:00,35.6,28.8,30.00,WNW,299,4.6,4.6,76,0.00,CLR,,0.00,WeatherDisplay:10.37,2013-02-24 13:12:00,
2013-02-24 08:14:00,35.7,28.9,30.00,WNW,295,3.5,3.5,76,0.00,CLR,,0.00,WeatherDisplay:10.37,2013-02-24 13:14:00,
2013-02-24 08:17:00,36.0,28.8,30.00,West,263,3.5,3.5,75,0.00,CLR,,0.00,WeatherDisplay:10.37,2013-02-24 13:17:00,
2013-02-24 08:19:00,36.1,28.9,30.00,WSW,254,2.3,2.3,75,0.00,CLR,,0.00,WeatherDisplay:10.37,2013-02-24 13:19:00,
2013-02-24 08:22:00,36.4,29.2,30.01,WSW,249,3.5,3.5,75,0.00,CLR,,0.00,WeatherDisplay:10.37,2013-02-24 13:22:00,
2013-02-24 08:24:00,36.5,29.0,30.01,West,259,3.5,3.5,74,0.00,CLR,,0.00,WeatherDisplay:10.37,2013-02-24 13:24:00,
2013-02-24 08:28:00,36.8,29.3,30.01,WSW,242,4.0,4.0,74,0.00,CLR,,0.00,WeatherDisplay:10.37,2013-02-24 13:28:00,
2013-02-24 08:29:00,36.9,29.1,30.01,West,260,3.5,3.5,73,0.00,CLR,,0.00,WeatherDisplay:10.37,2013-02-24 13:29:00,
2013-02-24 08:30:00,36.8,29.0,30.01,West,259,2.0,4.0,73,0.00,CLR,,0.00,WeatherDisplay:10.37,2013-02-24 13:30:00,
2013-02-24 08:33:00,37.1,29.2,30.01,West,269,2.3,2.3,73,0.00,CLR,,0.00,WeatherDisplay:10.37,2013-02-24 13:33:00,
2013-02-24 08:34:00,37.2,29.0,30.01,WSW,244,3.5,3.5,72,0.00,CLR,,0.00,WeatherDisplay:10.37,2013-02-24 13:34:00,
2013-02-24 08:35:00,37.1,29.3,30.01,West,264,2.0,5.0,73,0.00,CLR,,0.00,WeatherDisplay:10.37,2013-02-24 13:35:00,
2013-02-24 08:38:00,37.4,28.9,30.01,WSW,241,6.9,6.9,71,0.00,CLR,,0.00,WeatherDisplay:10.37,2013-02-24 13:38:00,
2013-02-24 08:40:00,37.4,28.9,30.01,West,260,2.0,7.0,71,0.00,CLR,,0.00,WeatherDisplay:10.37,2013-02-24 13:40:00,
2013-02-24 08:44:00,37.8,29.6,30.01,WSW,247,4.6,4.6,72,0.00,CLR,,0.00,WeatherDisplay:10.37,2013-02-24 13:44:00,
2013-02-24 08:45:00,37.9,29.3,30.02,WSW,252,3.5,3.5,71,0.00,CLR,,0.00,WeatherDisplay:10.37,2013-02-24 13:45:00,
2013-02-24 08:49:00,38.1,29.2,30.02,SW,236,4.0,4.0,70,0.00,CLR,,0.00,WeatherDisplay:10.37,2013-02-24 13:49:00,
2013-02-24 08:50:00,38.2,29.3,30.02,WNW,302,4.6,4.6,70,0.00,CLR,,0.00,WeatherDisplay:10.37,2013-02-24 13:50:00,
2013-02-24 08:54:00,38.4,29.1,30.02,WSW,258,7.0,7.0,69,0.00,CLR,,0.00,WeatherDisplay:10.37,2013-02-24 13:54:00,
2013-02-24 08:55:00,38.4,29.1,30.02,West,262,6.9,6.9,69,0.00,CLR,,0.00,WeatherDisplay:10.37,2013-02-24 13:55:00,
2013-02-24 08:59:00,38.7,29.0,30.02,WSW,243,5.8,5.8,68,0.00,CLR,,0.00,WeatherDisplay:10.37,2013-02-24 13:59:00,
2013-02-24 09:00:00,38.8,29.1,30.02,West,268,6.9,6.9,68,0.00,CLR,,0.00,WeatherDisplay:10.37,2013-02-24 14:00:00,
2013-02-24 09:05:00,38.9,29.2,30.02,WSW,240,4.6,4.6,68,0.00,CLR,,0.00,WeatherDisplay:10.37,2013-02-24 14:05:00,
2013-02-24 09:06:00,39.0,29.3,30.03,WSW,255,5.8,5.8,68,0.00,CLR,,0.00,WeatherDisplay:10.37,2013-02-24 14:06:00,
2013-02-24 09:10:00,39.1,29.1,30.02,NW,321,9.0,9.0,67,0.00,CLR,,0.00,WeatherDisplay:10.37,2013-02-24 14:10:00,
2013-02-24 09:11:00,39.2,28.4,30.02,West,281,11.5,11.5,65,0.00,CLR,,0.00,WeatherDisplay:10.37,2013-02-24 14:11:00,
2013-02-24 09:15:00,39.3,27.7,30.02,WSW,247,6.9,6.9,63,0.00,CLR,,0.00,WeatherDisplay:10.37,2013-02-24 14:15:00,
2013-02-24 09:16:00,39.3,27.7,30.02,NW,314,11.5,11.5,63,0.00,CLR,,0.00,WeatherDisplay:10.37,2013-02-24 14:16:00,
2013-02-24 09:17:00,39.3,27.7,30.02,WNW,302,11.5,11.5,63,0.00,CLR,,0.00,WeatherDisplay:10.37,2013-02-24 14:17:00,
2013-02-24 09:20:00,39.4,28.2,30.02,West,272,6.9,6.9,64,0.00,CLR,,0.00,WeatherDisplay:10.37,2013-02-24 14:20:00,
2013-02-24 09:21:00,39.4,28.2,30.03,WSW,239,6.0,6.0,64,0.00,CLR,,0.00,WeatherDisplay:10.37,2013-02-24 14:21:00,
2013-02-24 09:22:00,39.5,27.9,30.03,SW,222,10.4,10.4,63,0.00,CLR,,0.00,WeatherDisplay:10.37,2013-02-24 14:22:00,
2013-02-24 09:25:00,39.6,28.0,30.03,WSW,250,8.1,8.1,63,0.00,CLR,,0.00,WeatherDisplay:10.37,2013-02-24 14:25:00,
2013-02-24 09:26:00,39.7,28.1,30.03,WNW,283,8.1,8.1,63,0.00,CLR,,0.00,WeatherDisplay:10.37,2013-02-24 14:26:00,
2013-02-24 09:27:00,39.7,28.1,30.03,SSW,209,5.8,5.8,63,0.00,CLR,,0.00,WeatherDisplay:10.37,2013-02-24 14:27:00,
2013-02-24 09:31:00,39.9,27.9,30.03,WNW,295,8.1,8.1,62,0.00,CLR,,0.00,WeatherDisplay:10.37,2013-02-24 14:31:00,
2013-02-24 09:32:00,39.9,27.9,30.03,WNW,300,8.1,8.1,62,0.00,CLR,,0.00,WeatherDisplay:10.37,2013-02-24 14:32:00,
2013-02-24 09:36:00,40.1,28.1,30.03,West,281,5.8,5.8,62,0.00,CLR,,0.00,WeatherDisplay:10.37,2013-02-24 14:36:00,
2013-02-24 09:37:00,40.2,28.2,30.03,WNW,288,9.0,9.0,62,0.00,CLR,,0.00,WeatherDisplay:10.37,2013-02-24 14:37:00,
2013-02-24 09:38:00,40.3,28.7,30.03,WNW,300,8.1,8.1,63,0.00,CLR,,0.00,WeatherDisplay:10.37,2013-02-24 14:38:00,
2013-02-24 09:41:00,40.6,29.0,30.03,WNW,302,4.6,4.6,63,0.00,CLR,,0.00,WeatherDisplay:10.37,2013-02-24 14:41:00,
2013-02-24 09:42:00,40.6,29.0,30.03,West,269,4.6,4.6,63,0.00,CLR,,0.00,WeatherDisplay:10.37,2013-02-24 14:42:00,
2013-02-24 09:43:00,40.8,29.2,30.03,WSW,251,6.9,6.9,63,0.00,CLR,,0.00,WeatherDisplay:10.37,2013-02-24 14:43:00,
2013-02-24 09:47:00,40.9,29.3,30.03,WSW,253,4.6,4.6,63,0.00,CLR,,0.00,WeatherDisplay:10.37,2013-02-24 14:47:00,
2013-02-24 09:48:00,41.1,29.5,30.03,WSW,242,4.6,4.6,63,0.00,CLR,,0.00,WeatherDisplay:10.37,2013-02-24 14:48:00,
2013-02-24 09:52:00,41.1,29.1,30.03,WNW,294,6.9,6.9,62,0.00,CLR,,0.00,WeatherDisplay:10.37,2013-02-24 14:52:00,
2013-02-24 09:53:00,41.1,29.1,30.03,West,279,6.9,6.9,62,0.00,CLR,,0.00,WeatherDisplay:10.37,2013-02-24 14:53:00,
2013-02-24 09:57:00,41.1,29.1,30.03,WSW,248,4.0,4.0,62,0.00,CLR,,0.00,WeatherDisplay:10.37,2013-02-24 14:57:00,
2013-02-24 09:58:00,41.2,28.8,30.02,WSW,251,6.0,6.0,61,0.00,CLR,,0.00,WeatherDisplay:10.37,2013-02-24 14:58:00,
2013-02-24 10:02:00,41.4,28.5,30.02,WSW,251,4.6,4.6,60,0.00,CLR,,0.00,WeatherDisplay:10.37,2013-02-24 15:02:00,
2013-02-24 10:03:00,41.4,28.9,30.02,WNW,290,2.3,2.3,61,0.00,CLR,,0.00,WeatherDisplay:10.37,2013-02-24 15:03:00,
2013-02-24 10:04:00,41.6,29.1,30.02,WNW,283,4.0,4.0,61,0.00,CLR,,0.00,WeatherDisplay:10.37,2013-02-24 15:04:00,
2013-02-24 10:07:00,41.7,28.8,30.02,NW,305,5.8,5.8,60,0.00,CLR,,0.00,WeatherDisplay:10.37,2013-02-24 15:07:00,
2013-02-24 10:08:00,41.7,28.4,30.02,NW,304,6.9,6.9,59,0.00,CLR,,0.00,WeatherDisplay:10.37,2013-02-24 15:08:00,
2013-02-24 10:09:00,41.7,29.2,30.03,WNW,295,3.5,3.5,61,0.00,CLR,,0.00,WeatherDisplay:10.37,2013-02-24 15:09:00,
2013-02-24 10:12:00,41.9,28.2,30.02,WNW,289,10.4,10.4,58,0.00,CLR,,0.00,WeatherDisplay:10.37,2013-02-24 15:12:00,
2013-02-24 10:13:00,41.9,28.6,30.02,WSW,242,9.2,9.2,59,0.00,CLR,,0.00,WeatherDisplay:10.37,2013-02-24 15:13:00,
2013-02-24 10:14:00,41.9,29.0,30.02,West,260,3.5,3.5,60,0.00,CLR,,0.00,WeatherDisplay:10.37,2013-02-24 15:14:00,
2013-02-24 10:17:00,42.0,28.7,30.02,NNW,327,6.9,6.9,59,0.00,CLR,,0.00,WeatherDisplay:10.37,2013-02-24 15:17:00,
2013-02-24 10:18:00,42.0,28.7,30.02,NW,316,4.0,4.0,59,0.00,CLR,,0.00,WeatherDisplay:10.37,2013-02-24 15:18:00,
2013-02-24 10:19:00,42.1,28.4,30.03,WNW,283,5.8,5.8,58,0.00,CLR,,0.00,WeatherDisplay:10.37,2013-02-24 15:19:00,
2013-02-24 10:23:00,42.2,28.5,30.02,West,264,10.4,10.4,58,0.00,CLR,,0.00,WeatherDisplay:10.37,2013-02-24 15:23:00,
2013-02-24 10:25:00,42.4,29.9,30.03,West,260,5.8,5.8,61,0.00,CLR,,0.00,WeatherDisplay:10.37,2013-02-24 15:25:00,
2013-02-24 10:28:00,42.6,28.4,30.03,NW,322,8.1,8.1,57,0.00,CLR,,0.00,WeatherDisplay:10.37,2013-02-24 15:28:00,
2013-02-24 10:30:00,42.5,28.3,30.03,West,273,6.9,6.9,57,0.00,CLR,,0.00,WeatherDisplay:10.37,2013-02-24 15:30:00,
2013-02-24 10:33:00,42.6,28.0,30.03,West,274,10.4,10.4,56,0.00,CLR,,0.00,WeatherDisplay:10.37,2013-02-24 15:33:00,
2013-02-24 10:34:00,42.6,28.0,30.03,WNW,287,10.4,10.4,56,0.00,CLR,,0.00,WeatherDisplay:10.37,2013-02-24 15:34:00,
2013-02-24 10:35:00,42.8,27.7,30.03,SW,234,9.2,9.2,55,0.00,CLR,,0.00,WeatherDisplay:10.37,2013-02-24 15:35:00,
2013-02-24 10:39:00,42.8,27.7,30.02,WNW,302,4.6,4.6,55,0.00,CLR,,0.00,WeatherDisplay:10.37,2013-02-24 15:39:00,
2013-02-24 10:40:00,42.9,27.8,30.03,WNW,298,6.9,6.9,55,0.00,CLR,,0.00,WeatherDisplay:10.37,2013-02-24 15:40:00,
2013-02-24 10:41:00,42.9,28.3,30.03,WSW,257,9.2,9.2,56,0.00,CLR,,0.00,WeatherDisplay:10.37,2013-02-24 15:41:00,
2013-02-24 10:44:00,43.1,28.0,30.03,West,260,6.9,6.9,55,0.00,CLR,,0.00,WeatherDisplay:10.37,2013-02-24 15:44:00,
2013-02-24 10:46:00,43.3,28.2,30.03,NW,305,8.1,8.1,55,0.00,CLR,,0.00,WeatherDisplay:10.37,2013-02-24 15:46:00,
2013-02-24 10:49:00,43.3,28.6,30.03,West,261,5.8,5.8,56,0.00,CLR,,0.00,WeatherDisplay:10.37,2013-02-24 15:49:00,
2013-02-24 10:50:00,43.4,28.7,30.03,West,262,5.8,5.8,56,0.00,CLR,,0.00,WeatherDisplay:10.37,2013-02-24 15:50:00,
2013-02-24 10:51:00,43.5,28.8,30.03,NW,306,11.5,11.5,56,0.00,CLR,,0.00,WeatherDisplay:10.37,2013-02-24 15:51:00,
2013-02-24 10:54:00,43.5,27.9,30.03,SW,224,10.4,10.4,54,0.00,CLR,,0.00,WeatherDisplay:10.37,2013-02-24 15:54:00,
2013-02-24 10:55:00,43.5,27.9,30.03,WSW,240,4.6,4.6,54,0.00,CLR,,0.00,WeatherDisplay:10.37,2013-02-24 15:55:00,
2013-02-24 10:56:00,43.6,28.0,30.03,WSW,250,9.2,9.2,54,0.00,CLR,,0.00,WeatherDisplay:10.37,2013-02-24 15:56:00,
2013-02-24 11:00:00,43.6,28.0,30.03,WNW,290,3.0,10.0,54,0.00,CLR,,0.00,WeatherDisplay:10.37,2013-02-24 16:00:00,
2013-02-24 11:01:00,43.8,29.5,30.03,NW,308,9.2,9.2,57,0.00,CLR,,0.00,WeatherDisplay:10.37,2013-02-24 16:01:00,
2013-02-24 11:02:00,43.8,28.7,30.03,West,272,10.4,10.4,55,0.00,CLR,,0.00,WeatherDisplay:10.37,2013-02-24 16:02:00,
2013-02-24 11:05:00,43.9,28.3,30.03,West,275,5.0,10.0,54,0.00,CLR,,0.00,WeatherDisplay:10.37,2013-02-24 16:05:00,
2013-02-24 11:06:00,44.1,28.5,30.03,West,261,5.8,6.6,54,0.00,CLR,,0.00,WeatherDisplay:10.37,2013-02-24 16:06:00,
2013-02-24 11:07:00,44.2,28.6,30.03,WNW,295,5.0,5.0,54,0.00,CLR,,0.00,WeatherDisplay:10.37,2013-02-24 16:07:00,
2013-02-24 11:10:00,44.6,29.4,30.03,WSW,238,4.6,4.6,55,0.00,CLR,,0.00,WeatherDisplay:10.37,2013-02-24 16:10:00,
2013-02-24 11:11:00,44.8,28.2,30.03,West,269,6.9,6.9,52,0.00,CLR,,0.00,WeatherDisplay:10.37,2013-02-24 16:11:00,
2013-02-24 11:12:00,44.8,29.2,30.03,NW,307,9.2,9.2,54,0.00,CLR,,0.00,WeatherDisplay:10.37,2013-02-24 16:12:00,
2013-02-24 11:15:00,45.0,29.8,30.03,SW,222,10.4,10.4,55,0.00,CLR,,0.00,WeatherDisplay:10.37,2013-02-24 16:15:00,
2013-02-24 11:16:00,45.0,28.9,30.03,WNW,299,6.9,6.9,53,0.00,CLR,,0.00,WeatherDisplay:10.37,2013-02-24 16:16:00,
2013-02-24 11:17:00,45.0,28.4,30.03,WSW,241,6.9,6.9,52,0.00,CLR,,0.00,WeatherDisplay:10.37,2013-02-24 16:17:00,
2013-02-24 11:20:00,45.1,29.4,30.03,WSW,238,3.5,3.5,54,0.00,CLR,,0.00,WeatherDisplay:10.37,2013-02-24 16:20:00,
2013-02-24 11:21:00,45.3,29.2,30.03,WNW,288,8.0,8.0,53,0.00,CLR,,0.00,WeatherDisplay:10.37,2013-02-24 16:21:00,
2013-02-24 11:22:00,45.1,28.0,30.03,WNW,302,9.2,9.2,51,0.00,CLR,,0.00,WeatherDisplay:10.37,2013-02-24 16:22:00,
2013-02-24 11:23:00,45.1,28.0,30.03,WNW,302,9.2,9.2,51,0.00,CLR,,0.00,WeatherDisplay:10.37,2013-02-24 16:23:00,
2013-02-24 11:25:00,44.7,28.6,30.03,NNW,329,16.1,16.1,53,0.00,CLR,,0.00,WeatherDisplay:10.37,2013-02-24 16:25:00,
2013-02-24 11:27:00,44.5,29.3,30.03,WSW,244,6.9,6.9,55,0.00,CLR,,0.00,WeatherDisplay:10.37,2013-02-24 16:27:00,
2013-02-24 11:28:00,44.6,29.4,30.03,WNW,290,6.9,6.9,55,0.00,CLR,,0.00,WeatherDisplay:10.37,2013-02-24 16:28:00,
2013-02-24 11:30:00,45.0,31.5,30.03,WNW,295,7.0,7.0,59,0.00,CLR,,0.00,WeatherDisplay:10.37,2013-02-24 16:30:00,
2013-02-24 11:32:00,45.3,30.1,30.03,NNW,339,9.0,9.0,55,0.00,CLR,,0.00,WeatherDisplay:10.37,2013-02-24 16:32:00,
2013-02-24 11:33:00,45.2,30.0,30.03,NW,317,6.9,8.1,55,0.00,CLR,,0.00,WeatherDisplay:10.37,2013-02-24 16:33:00,
2013-02-24 11:36:00,45.3,29.6,30.03,West,263,8.1,8.1,54,0.00,CLR,,0.00,WeatherDisplay:10.37,2013-02-24 16:36:00,
2013-02-24 11:37:00,45.6,30.8,30.03,West,266,5.8,5.8,56,0.00,CLR,,0.00,WeatherDisplay:10.37,2013-02-24 16:37:00,
2013-02-24 11:38:00,45.8,31.0,30.03,WNW,293,4.0,4.0,56,0.00,CLR,,0.00,WeatherDisplay:10.37,2013-02-24 16:38:00,
2013-02-24 11:41:00,46.2,30.0,30.03,WSW,249,5.8,5.8,53,0.00,CLR,,0.00,WeatherDisplay:10.37,2013-02-24 16:41:00,
2013-02-24 11:43:00,46.3,30.5,30.03,NW,324,10.4,10.4,54,0.00,CLR,,0.00,WeatherDisplay:10.37,2013-02-24 16:43:00,
2013-02-24 11:44:00,46.1,29.4,30.03,WNW,303,9.2,9.2,52,0.00,CLR,,0.00,WeatherDisplay:10.37,2013-02-24 16:44:00,
2013-02-24 11:46:00,45.7,29.5,30.03,West,261,10.0,10.0,53,0.00,CLR,,0.00,WeatherDisplay:10.37,2013-02-24 16:46:00,
2013-02-24 11:48:00,45.5,28.9,30.03,NW,319,10.4,10.4,52,0.00,CLR,,0.00,WeatherDisplay:10.37,2013-02-24 16:48:00,
2013-02-24 11:49:00,45.4,28.8,30.03,WNW,301,11.5,11.5,52,0.00,CLR,,0.00,WeatherDisplay:10.37,2013-02-24 16:49:00,
2013-02-24 11:51:00,45.3,29.6,30.03,WNW,293,5.8,5.8,54,0.00,CLR,,0.00,WeatherDisplay:10.37,2013-02-24 16:51:00,
2013-02-24 11:53:00,45.4,30.2,30.02,WNW,293,5.0,5.0,55,0.00,CLR,,0.00,WeatherDisplay:10.37,2013-02-24 16:53:00,
2013-02-24 11:54:00,45.4,29.3,30.02,West,261,4.6,4.6,53,0.00,CLR,,0.00,WeatherDisplay:10.37,2013-02-24 16:54:00,
2013-02-24 11:56:00,45.7,29.1,30.02,NW,313,10.4,10.4,52,0.00,CLR,,0.00,WeatherDisplay:10.37,2013-02-24 16:56:00,
2013-02-24 11:59:00,45.3,28.2,30.02,NW,316,11.5,11.5,51,0.00,CLR,,0.00,WeatherDisplay:10.37,2013-02-24 16:59:00,
2013-02-24 12:02:00,45.1,29.0,30.02,NW,323,10.4,10.4,53,0.00,CLR,,0.00,WeatherDisplay:10.37,2013-02-24 17:02:00,
2013-02-24 12:04:00,45.5,31.1,30.02,NW,307,6.0,6.0,57,0.00,CLR,,0.00,WeatherDisplay:10.37,2013-02-24 17:04:00,
2013-02-24 12:07:00,45.6,28.5,30.02,NW,326,9.2,9.2,51,0.00,CLR,,0.00,WeatherDisplay:10.37,2013-02-24 17:07:00,
2013-02-24 12:09:00,45.5,28.9,30.02,West,281,5.8,5.8,52,0.00,CLR,,0.00,WeatherDisplay:10.37,2013-02-24 17:09:00,
2013-02-24 12:10:00,45.7,30.9,30.02,WSW,249,1.1,1.1,56,0.00,CLR,,0.00,WeatherDisplay:10.37,2013-02-24 17:10:00,
2013-02-24 12:12:00,46.3,29.1,30.02,West,269,5.8,5.8,51,0.00,CLR,,0.00,WeatherDisplay:10.37,2013-02-24 17:12:00,
2013-02-24 12:14:00,46.3,30.1,30.02,NW,317,3.5,3.5,53,0.00,CLR,,0.00,WeatherDisplay:10.37,2013-02-24 17:14:00,
2013-02-24 12:15:00,46.3,30.6,30.02,WNW,292,3.0,7.0,54,0.00,CLR,,0.00,WeatherDisplay:10.37,2013-02-24 17:15:00,
2013-02-24 12:17:00,46.7,29.5,30.02,NW,306,6.9,6.9,51,0.00,CLR,,0.00,WeatherDisplay:10.37,2013-02-24 17:17:00,
2013-02-24 12:19:00,46.8,29.1,30.02,WSW,249,4.6,4.6,50,0.00,CLR,,0.00,WeatherDisplay:10.37,2013-02-24 17:19:00,
2013-02-24 12:20:00,46.8,29.6,30.02,West,279,3.0,7.0,51,0.00,CLR,,0.00,WeatherDisplay:10.37,2013-02-24 17:20:00,
2013-02-24 12:21:00,47.0,30.3,30.02,WNW,288,9.2,9.2,52,0.00,CLR,,0.00,WeatherDisplay:10.37,2013-02-24 17:21:00,
2013-02-24 12:22:00,46.9,31.1,30.02,West,278,10.4,10.4,54,0.00,CLR,,0.00,WeatherDisplay:10.37,2013-02-24 17:22:00,
2013-02-24 12:24:00,47.1,30.4,30.02,West,269,5.8,5.8,52,0.00,CLR,,0.00,WeatherDisplay:10.37,2013-02-24 17:24:00,
2013-02-24 12:25:00,47.2,30.5,30.02,West,271,5.8,5.8,52,0.00,CLR,,0.00,WeatherDisplay:10.37,2013-02-24 17:25:00,
2013-02-24 12:26:00,47.4,29.7,30.02,NW,306,4.6,4.6,50,0.00,CLR,,0.00,WeatherDisplay:10.37,2013-02-24 17:26:00,
2013-02-24 12:27:00,47.6,30.3,30.02,WSW,255,4.6,4.6,51,0.00,CLR,,0.00,WeatherDisplay:10.37,2013-02-24 17:27:00,
2013-02-24 12:29:00,47.7,30.0,30.01,West,279,8.1,8.1,50,0.00,CLR,,0.00,WeatherDisplay:10.37,2013-02-24 17:29:00,
2013-02-24 12:30:00,47.7,30.0,30.02,NW,305,8.1,8.1,50,0.00,CLR,,0.00,WeatherDisplay:10.37,2013-02-24 17:30:00,
2013-02-24 12:31:00,47.7,30.0,30.02,WNW,295,10.4,10.4,50,0.00,CLR,,0.00,WeatherDisplay:10.37,2013-02-24 17:31:00,
2013-02-24 12:32:00,47.6,29.9,30.01,NW,323,11.5,11.5,50,0.00,CLR,,0.00,WeatherDisplay:10.37,2013-02-24 17:32:00,
2013-02-24 12:34:00,47.4,29.2,30.01,NW,313,8.1,8.1,49,0.00,CLR,,0.00,WeatherDisplay:10.37,2013-02-24 17:34:00,
2013-02-24 12:36:00,47.4,30.2,30.01,West,271,10.4,10.4,51,0.00,CLR,,0.00,WeatherDisplay:10.37,2013-02-24 17:36:00,
2013-02-24 12:37:00,47.6,30.3,30.01,WNW,296,6.9,6.9,51,0.00,CLR,,0.00,WeatherDisplay:10.37,2013-02-24 17:37:00,
2013-02-24 12:38:00,47.7,30.0,30.01,WNW,302,10.4,10.4,50,0.00,CLR,,0.00,WeatherDisplay:10.37,2013-02-24 17:38:00,
2013-02-24 12:40:00,47.8,31.0,30.01,WNW,289,5.0,10.0,52,0.00,CLR,,0.00,WeatherDisplay:10.37,2013-02-24 17:40:00,
2013-02-24 12:41:00,47.9,30.1,30.01,NW,317,4.0,4.0,50,0.00,CLR,,0.00,WeatherDisplay:10.37,2013-02-24 17:41:00,
2013-02-24 12:42:00,47.8,28.5,30.01,WNW,302,8.1,8.1,47,0.00,CLR,,0.00,WeatherDisplay:10.37,2013-02-24 17:42:00,
2013-02-24 12:43:00,47.6,27.8,30.02,West,263,5.8,5.8,46,0.00,CLR,,0.00,WeatherDisplay:10.37,2013-02-24 17:43:00,
2013-02-24 12:45:00,47.8,31.5,30.01,WSW,257,8.1,8.1,53,0.00,CLR,,0.00,WeatherDisplay:10.37,2013-02-24 17:45:00,
2013-02-24 12:46:00,48.1,31.8,30.02,WNW,285,11.0,11.0,53,0.00,CLR,,0.00,WeatherDisplay:10.37,2013-02-24 17:46:00,
2013-02-24 12:47:00,48.1,31.3,30.01,NW,307,11.5,11.5,52,0.00,CLR,,0.00,WeatherDisplay:10.37,2013-02-24 17:47:00,
2013-02-24 12:48:00,48.1,30.3,30.02,NW,318,8.1,8.1,50,0.00,CLR,,0.00,WeatherDisplay:10.37,2013-02-24 17:48:00,
2013-02-24 12:50:00,48.3,31.9,30.02,WSW,250,8.1,8.1,53,0.00,CLR,,0.00,WeatherDisplay:10.37,2013-02-24 17:50:00,
2013-02-24 12:51:00,48.3,31.0,30.01,SW,236,8.1,8.1,51,0.00,CLR,,0.00,WeatherDisplay:10.37,2013-02-24 17:51:00,
2013-02-24 12:53:00,48.4,30.6,30.01,WSW,245,5.8,5.8,50,0.00,CLR,,0.00,WeatherDisplay:10.37,2013-02-24 17:53:00,
2013-02-24 12:56:00,48.4,29.6,30.01,WSW,257,6.9,6.9,48,0.00,CLR,,0.00,WeatherDisplay:10.37,2013-02-24 17:56:00,
2013-02-24 12:58:00,48.6,29.8,30.02,WNW,282,7.0,7.0,48,0.00,CLR,,0.00,WeatherDisplay:10.37,2013-02-24 17:58:00,
2013-02-24 13:01:00,48.9,29.0,30.02,SW,218,9.2,9.2,46,0.00,CLR,,0.00,WeatherDisplay:10.37,2013-02-24 18:01:00,
2013-02-24 13:03:00,48.8,28.4,30.02,West,268,4.6,4.6,45,0.00,CLR,,0.00,WeatherDisplay:10.37,2013-02-24 18:03:00,
2013-02-24 13:06:00,48.8,28.4,30.01,WSW,244,5.8,5.8,45,0.00,CLR,,0.00,WeatherDisplay:10.37,2013-02-24 18:06:00,
2013-02-24 13:07:00,48.8,28.4,30.02,WSW,249,6.9,6.9,45,0.00,CLR,,0.00,WeatherDisplay:10.37,2013-02-24 18:07:00,
2013-02-24 13:08:00,49.1,31.2,30.02,West,264,10.4,10.4,50,0.00,CLR,,0.00,WeatherDisplay:10.37,2013-02-24 18:08:00,
2013-02-24 13:12:00,49.1,29.7,30.01,SW,234,8.1,8.1,47,0.00,CLR,,0.00,WeatherDisplay:10.37,2013-02-24 18:12:00,
2013-02-24 13:13:00,49.1,29.7,30.02,WSW,243,5.8,5.8,47,0.00,CLR,,0.00,WeatherDisplay:10.37,2013-02-24 18:13:00,
2013-02-24 13:14:00,49.1,30.7,30.01,West,278,6.0,6.0,49,0.00,CLR,,0.00,WeatherDisplay:10.37,2013-02-24 18:14:00,
2013-02-24 13:17:00,49.4,30.5,30.01,WNW,288,11.5,11.5,48,0.00,CLR,,0.00,WeatherDisplay:10.37,2013-02-24 18:17:00,
2013-02-24 13:18:00,49.5,30.6,30.01,NW,313,11.5,11.5,48,0.00,CLR,,0.00,WeatherDisplay:10.37,2013-02-24 18:18:00,
2013-02-24 13:19:00,49.5,28.5,30.01,SW,230,10.4,10.4,44,0.00,CLR,,0.00,WeatherDisplay:10.37,2013-02-24 18:19:00,
2013-02-24 13:22:00,49.7,28.6,30.01,NW,321,5.8,5.8,44,0.00,CLR,,0.00,WeatherDisplay:10.37,2013-02-24 18:22:00,
2013-02-24 13:23:00,49.7,28.6,30.01,North,358,7.0,7.0,44,0.00,CLR,,0.00,WeatherDisplay:10.37,2013-02-24 18:23:00,
2013-02-24 13:25:00,49.8,30.4,30.01,NW,323,8.1,8.1,47,0.00,CLR,,0.00,WeatherDisplay:10.37,2013-02-24 18:25:00,
2013-02-24 13:27:00,49.9,31.0,30.01,WNW,296,6.9,6.9,48,0.00,CLR,,0.00,WeatherDisplay:10.37,2013-02-24 18:27:00,
2013-02-24 13:28:00,49.9,31.0,30.01,WSW,253,10.4,10.4,48,0.00,CLR,,0.00,WeatherDisplay:10.37,2013-02-24 18:28:00,
2013-02-24 13:29:00,50.0,31.1,30.01,WSW,258,7.0,7.0,48,0.00,CLR,,0.00,WeatherDisplay:10.37,2013-02-24 18:29:00,
2013-02-24 13:30:00,50.1,31.2,30.01,West,269,9.0,9.0,48,0.00,CLR,,0.00,WeatherDisplay:10.37,2013-02-24 18:30:00,
2013-02-24 13:32:00,49.8,31.4,30.01,WSW,253,6.9,6.9,49,0.00,CLR,,0.00,WeatherDisplay:10.37,2013-02-24 18:32:00,
2013-02-24 13:33:00,49.8,30.9,30.01,WNW,283,6.9,6.9,48,0.00,CLR,,0.00,WeatherDisplay:10.37,2013-02-24 18:33:00,
2013-02-24 13:34:00,49.9,30.5,30.01,WSW,238,5.8,5.8,47,0.00,CLR,,0.00,WeatherDisplay:10.37,2013-02-24 18:34:00,
2013-02-24 13:35:00,49.9,30.5,30.01,WNW,282,3.0,9.0,47,0.00,CLR,,0.00,WeatherDisplay:10.37,2013-02-24 18:35:00,
2013-02-24 13:37:00,50.1,30.1,30.00,West,264,8.1,8.1,46,0.00,CLR,,0.00,WeatherDisplay:10.37,2013-02-24 18:37:00,
2013-02-24 13:39:00,50.3,30.3,30.01,West,271,8.1,8.1,46,0.00,CLR,,0.00,WeatherDisplay:10.37,2013-02-24 18:39:00,
2013-02-24 13:40:00,50.3,29.7,30.01,West,277,6.0,11.0,45,0.00,CLR,,0.00,WeatherDisplay:10.37,2013-02-24 18:40:00,
2013-02-24 13:43:00,50.3,29.2,30.00,NW,312,9.2,9.2,44,0.00,CLR,,0.00,WeatherDisplay:10.37,2013-02-24 18:43:00,
2013-02-24 13:44:00,50.3,29.7,30.00,West,264,6.9,6.9,45,0.00,CLR,,0.00,WeatherDisplay:10.37,2013-02-24 18:44:00,
2013-02-24 13:45:00,50.4,29.8,30.00,WSW,248,4.6,4.6,45,0.00,CLR,,0.00,WeatherDisplay:10.37,2013-02-24 18:45:00,
2013-02-24 13:48:00,50.5,29.9,30.00,SW,234,4.6,4.6,45,0.00,,,0.00,WeatherDisplay:10.37,2013-02-24 18:48:00,
2013-02-24 13:49:00,50.7,30.1,30.00,WSW,258,3.5,3.5,45,0.00,,,0.00,WeatherDisplay:10.37,2013-02-24 18:49:00,
2013-02-24 13:50:00,50.7,29.6,30.00,NW,306,6.9,6.9,44,0.00,,,0.00,WeatherDisplay:10.37,2013-02-24 18:50:00,
2013-02-24 13:53:00,51.0,30.4,30.00,SSE,167,6.9,6.9,45,0.00,,,0.00,WeatherDisplay:10.37,2013-02-24 18:53:00,
2013-02-24 13:54:00,51.0,30.4,30.00,WSW,241,5.8,5.8,45,0.00,,,0.00,WeatherDisplay:10.37,2013-02-24 18:54:00,
2013-02-24 13:55:00,51.1,30.5,30.00,WSW,246,6.0,6.0,45,0.00,,,0.00,WeatherDisplay:10.37,2013-02-24 18:55:00,
2013-02-24 13:58:00,51.2,30.0,30.00,SW,235,11.5,11.5,44,0.00,,,0.00,WeatherDisplay:10.37,2013-02-24 18:58:00,
2013-02-24 13:59:00,51.0,28.7,30.00,WSW,257,9.2,9.2,42,0.00,,,0.00,WeatherDisplay:10.37,2013-02-24 18:59:00,
2013-02-24 14:00:00,50.9,29.2,30.00,WSW,257,9.2,9.2,43,0.00,,,0.00,WeatherDisplay:10.37,2013-02-24 19:00:00,
2013-02-24 14:03:00,50.7,29.0,30.00,WNW,283,15.0,15.0,43,0.00,,,0.00,WeatherDisplay:10.37,2013-02-24 19:03:00,
2013-02-24 14:04:00,50.6,29.5,30.00,West,276,11.5,11.5,44,0.00,,,0.00,WeatherDisplay:10.37,2013-02-24 19:04:00,
2013-02-24 14:05:00,50.5,28.8,30.00,West,276,8.1,8.1,43,0.00,,,0.00,WeatherDisplay:10.37,2013-02-24 19:05:00,
2013-02-24 14:08:00,49.9,28.8,30.00,WNW,290,4.0,4.0,44,0.00,,,0.00,WeatherDisplay:10.37,2013-02-24 19:08:00,
2013-02-24 14:09:00,49.9,28.8,30.00,West,271,7.0,7.0,44,0.00,,,0.00,WeatherDisplay:10.37,2013-02-24 19:09:00,
2013-02-24 14:10:00,50.0,28.4,30.00,WSW,244,6.9,6.9,43,0.00,,,0.00,WeatherDisplay:10.37,2013-02-24 19:10:00,
2013-02-24 14:14:00,50.2,28.5,30.00,WNW,298,6.9,6.9,43,0.00,,,0.00,WeatherDisplay:10.37,2013-02-24 19:14:00,
2013-02-24 14:15:00,50.1,28.4,30.00,WNW,300,4.6,4.6,43,0.00,,,0.00,WeatherDisplay:10.37,2013-02-24 19:15:00,
2013-02-24 14:16:00,50.1,27.9,30.00,WNW,285,5.0,5.3,42,0.00,,,0.00,WeatherDisplay:10.37,2013-02-24 19:16:00,
2013-02-24 14:19:00,50.4,28.7,30.00,NW,317,8.1,8.1,43,0.00,,,0.00,WeatherDisplay:10.37,2013-02-24 19:19:00,
2013-02-24 14:20:00,50.4,28.7,30.00,West,280,9.2,9.2,43,0.00,,,0.00,WeatherDisplay:10.37,2013-02-24 19:20:00,
2013-02-24 14:21:00,50.5,29.4,30.00,West,267,6.0,6.0,44,0.00,,,0.00,WeatherDisplay:10.37,2013-02-24 19:21:00,
2013-02-24 14:25:00,50.8,27.9,30.00,NW,321,9.2,9.2,41,0.00,,,0.00,WeatherDisplay:10.37,2013-02-24 19:25:00,
2013-02-24 14:26:00,50.8,29.6,30.00,WNW,296,9.2,9.2,44,0.00,,,0.00,WeatherDisplay:10.37,2013-02-24 19:26:00,
2013-02-24 14:30:00,50.4,28.7,30.00,WNW,297,9.2,9.2,43,0.00,,,0.00,WeatherDisplay:10.37,2013-02-24 19:30:00,
2013-02-24 14:31:00,50.4,28.7,30.00,NW,314,9.2,9.2,43,0.00,,,0.00,WeatherDisplay:10.37,2013-02-24 19:31:00,
2013-02-24 14:35:00,50.9,29.2,30.00,WSW,244,11.5,11.5,43,0.00,,,0.00,WeatherDisplay:10.37,2013-02-24 19:35:00,
2013-02-24 14:36:00,50.9,28.6,30.00,SW,221,8.1,8.1,42,0.00,,,0.00,WeatherDisplay:10.37,2013-02-24 19:36:00,
2013-02-24 14:41:00,51.4,29.6,30.00,SW,215,8.1,8.1,43,0.00,,,0.00,WeatherDisplay:10.37,2013-02-24 19:41:00,
2013-02-24 14:46:00,51.6,29.2,30.00,NW,306,12.7,12.7,42,0.00,,,0.00,WeatherDisplay:10.37,2013-02-24 19:46:00,
2013-02-24 14:51:00,51.8,29.4,30.00,WSW,257,6.9,6.9,42,0.00,,,0.00,WeatherDisplay:10.37,2013-02-24 19:51:00,
2013-02-24 14:56:00,52.1,29.1,30.00,West,274,5.8,5.8,41,0.00,,,0.00,WeatherDisplay:10.37,2013-02-24 19:56:00,
2013-02-24 14:57:00,52.1,28.5,30.00,WSW,253,5.8,5.8,40,0.00,,,0.00,WeatherDisplay:10.37,2013-02-24 19:57:00,
2013-02-24 15:01:00,52.2,29.2,30.00,WSW,254,6.9,6.9,41,0.00,,,0.00,WeatherDisplay:10.37,2013-02-24 20:01:00,
2013-02-24 15:02:00,52.2,28.6,30.00,WSW,258,6.9,6.9,40,0.00,,,0.00,WeatherDisplay:10.37,2013-02-24 20:02:00,
2013-02-24 15:06:00,51.2,27.7,30.00,WNW,301,8.1,8.1,40,0.00,,,0.00,WeatherDisplay:10.37,2013-02-24 20:06:00,
2013-02-24 15:07:00,51.1,28.8,30.00,NNW,333,8.1,8.1,42,0.00,,,0.00,WeatherDisplay:10.37,2013-02-24 20:07:00,
2013-02-24 15:11:00,51.4,29.1,30.00,North,350,8.1,8.1,42,0.00,,,0.00,WeatherDisplay:10.37,2013-02-24 20:11:00,
2013-02-24 15:12:00,51.4,27.9,30.00,NNW,344,11.5,11.5,40,0.00,,,0.00,WeatherDisplay:10.37,2013-02-24 20:12:00,
2013-02-24 15:16:00,51.1,28.2,30.00,NW,317,9.2,9.2,41,0.00,,,0.00,WeatherDisplay:10.37,2013-02-24 20:16:00,
2013-02-24 15:17:00,51.0,26.9,30.00,WNW,295,10.4,10.4,39,0.00,,,0.00,WeatherDisplay:10.37,2013-02-24 20:17:00,
2013-02-24 15:21:00,50.8,27.3,30.00,WSW,253,9.2,9.2,40,0.00,,,0.00,WeatherDisplay:10.37,2013-02-24 20:21:00,
2013-02-24 15:22:00,50.9,27.4,30.00,WSW,246,6.9,6.9,40,0.00,,,0.00,WeatherDisplay:10.37,2013-02-24 20:22:00,
2013-02-24 15:23:00,51.0,27.5,30.00,WNW,290,4.6,4.6,40,0.00,,,0.00,WeatherDisplay:10.37,2013-02-24 20:23:00,
2013-02-24 15:26:00,51.8,28.2,30.00,West,275,3.5,3.5,40,0.00,,,0.00,WeatherDisplay:10.37,2013-02-24 20:26:00,
2013-02-24 15:27:00,51.9,28.9,30.00,NW,305,6.0,6.0,41,0.00,,,0.00,WeatherDisplay:10.37,2013-02-24 20:27:00,
2013-02-24 15:28:00,52.0,29.0,30.00,WNW,303,8.0,8.0,41,0.00,,,0.00,WeatherDisplay:10.37,2013-02-24 20:28:00,
2013-02-24 15:32:00,51.6,27.4,30.00,NNW,330,9.2,9.2,39,0.00,,,0.00,WeatherDisplay:10.37,2013-02-24 20:32:00,
2013-02-24 15:33:00,51.4,26.0,30.00,NW,311,8.1,8.1,37,0.00,,,0.00,WeatherDisplay:10.37,2013-02-24 20:33:00,
2013-02-24 15:37:00,51.4,26.6,30.00,WNW,300,11.0,11.0,38,0.00,,,0.00,WeatherDisplay:10.37,2013-02-24 20:37:00,
2013-02-24 15:38:00,51.6,27.4,30.00,WSW,250,11.5,11.5,39,0.00,,,0.00,WeatherDisplay:10.37,2013-02-24 20:38:00,
2013-02-24 15:42:00,51.9,25.1,30.00,West,262,6.9,6.9,35,0.00,,,0.00,WeatherDisplay:10.37,2013-02-24 20:42:00,
2013-02-24 15:43:00,51.9,25.8,30.00,West,261,3.5,3.5,36,0.00,,,0.00,WeatherDisplay:10.37,2013-02-24 20:43:00,
2013-02-24 15:47:00,52.3,26.1,30.00,NW,319,3.5,3.5,36,0.00,,,0.00,WeatherDisplay:10.37,2013-02-24 20:47:00,
2013-02-24 15:48:00,52.4,27.5,30.00,WSW,243,4.0,4.0,38,0.00,,,0.00,WeatherDisplay:10.37,2013-02-24 20:48:00,
2013-02-24 15:52:00,52.2,26.0,30.00,SW,231,4.0,4.0,36,0.00,,,0.00,WeatherDisplay:10.37,2013-02-24 20:52:00,
2013-02-24 15:53:00,52.2,26.7,30.00,WNW,295,6.0,6.0,37,0.00,,,0.00,WeatherDisplay:10.37,2013-02-24 20:53:00,
2013-02-24 15:54:00,52.2,26.7,30.00,SW,231,6.9,6.9,37,0.00,,,0.00,WeatherDisplay:10.37,2013-02-24 20:54:00,
2013-02-24 15:57:00,52.5,26.3,30.00,WNW,300,11.0,11.0,36,0.00,,,0.00,WeatherDisplay:10.37,2013-02-24 20:57:00,
2013-02-24 15:58:00,52.4,25.5,30.00,WNW,298,12.7,12.7,35,0.00,,,0.00,WeatherDisplay:10.37,2013-02-24 20:58:00,
2013-02-24 15:59:00,52.3,26.1,30.00,WNW,299,11.5,11.5,36,0.00,,,0.00,WeatherDisplay:10.37,2013-02-24 20:59:00,
2013-02-24 16:02:00,52.4,26.9,30.00,WNW,296,4.0,4.0,37,0.00,,,0.00,WeatherDisplay:10.37,2013-02-24 21:02:00,
2013-02-24 16:03:00,52.4,24.8,30.00,West,261,13.8,13.8,34,0.00,,,0.00,WeatherDisplay:10.37,2013-02-24 21:03:00,
2013-02-24 16:04:00,52.3,25.4,30.00,NW,307,9.2,9.2,35,0.00,,,0.00,WeatherDisplay:10.37,2013-02-24 21:04:00,
2013-02-24 16:07:00,52.4,26.2,30.00,NW,313,9.2,9.2,36,0.00,,,0.00,WeatherDisplay:10.37,2013-02-24 21:07:00,
2013-02-24 16:08:00,52.5,25.6,30.00,NNE,13,5.8,5.8,35,0.00,,,0.00,WeatherDisplay:10.37,2013-02-24 21:08:00,
2013-02-24 16:09:00,52.5,25.6,30.00,WNW,302,5.8,5.8,35,0.00,,,0.00,WeatherDisplay:10.37,2013-02-24 21:09:00,
2013-02-24 16:10:00,52.5,24.9,30.00,WNW,298,5.8,5.8,34,0.00,,,0.00,WeatherDisplay:10.37,2013-02-24 21:10:00,
2013-02-24 16:13:00,52.7,25.8,30.00,WNW,300,7.0,7.0,35,0.00,,,0.00,WeatherDisplay:10.37,2013-02-24 21:13:00,
2013-02-24 16:14:00,52.8,26.6,30.00,WNW,293,6.9,6.9,36,0.00,,,0.00,WeatherDisplay:10.37,2013-02-24 21:14:00,
2013-02-24 16:15:00,52.8,26.6,30.00,WSW,253,6.9,6.9,36,0.00,,,0.00,WeatherDisplay:10.37,2013-02-24 21:15:00,
2013-02-24 16:18:00,52.4,24.1,30.00,NW,312,11.5,11.5,33,0.00,,,0.00,WeatherDisplay:10.37,2013-02-24 21:18:00,
2013-02-24 16:19:00,52.4,24.1,30.00,West,278,11.5,11.5,33,0.00,,,0.00,WeatherDisplay:10.37,2013-02-24 21:19:00,
2013-02-24 16:20:00,52.2,23.9,30.00,WNW,283,11.5,11.5,33,0.00,,,0.00,WeatherDisplay:10.37,2013-02-24 21:20:00,
2013-02-24 16:21:00,52.0,23.8,30.00,NNW,337,9.2,9.2,33,0.00,,,0.00,WeatherDisplay:10.37,2013-02-24 21:21:00,
2013-02-24 16:24:00,51.8,25.0,30.00,NW,308,8.0,8.0,35,0.00,,,0.00,WeatherDisplay:10.37,2013-02-24 21:24:00,
2013-02-24 16:25:00,51.9,26.4,30.00,NW,319,8.1,8.1,37,0.00,,,0.00,WeatherDisplay:10.37,2013-02-24 21:25:00,
2013-02-24 16:26:00,52.0,26.5,30.00,NW,314,4.6,4.6,37,0.00,,,0.00,WeatherDisplay:10.37,2013-02-24 21:26:00,
2013-02-24 16:29:00,51.8,24.3,30.01,NW,318,9.2,9.2,34,0.00,,,0.00,WeatherDisplay:10.37,2013-02-24 21:29:00,
2013-02-24 16:30:00,51.5,24.0,30.01,NW,307,10.4,10.4,34,0.00,,,0.00,WeatherDisplay:10.37,2013-02-24 21:30:00,
2013-02-24 16:31:00,51.4,23.9,30.01,WNW,286,11.5,11.5,34,0.00,,,0.00,WeatherDisplay:10.37,2013-02-24 21:31:00,
2013-02-24 16:32:00,51.2,24.5,30.01,WNW,286,10.4,10.4,35,0.00,,,0.00,WeatherDisplay:10.37,2013-02-24 21:32:00,
2013-02-24 16:34:00,51.3,23.8,30.01,NW,306,8.1,8.1,34,0.00,,,0.00,WeatherDisplay:10.37,2013-02-24 21:34:00,
2013-02-24 16:36:00,51.3,23.8,30.01,NW,312,11.5,11.5,34,0.00,,,0.00,WeatherDisplay:10.37,2013-02-24 21:36:00,
2013-02-24 16:38:00,51.3,23.8,30.01,West,278,4.6,4.6,34,0.00,,,0.00,WeatherDisplay:10.37,2013-02-24 21:38:00,
2013-02-24 16:39:00,51.4,24.6,30.01,NW,319,7.0,7.0,35,0.00,,,0.00,WeatherDisplay:10.37,2013-02-24 21:39:00,
2013-02-24 16:41:00,51.4,23.9,30.01,NW,312,9.2,9.2,34,0.00,,,0.00,WeatherDisplay:10.37,2013-02-24 21:41:00,
2013-02-24 16:43:00,51.2,23.8,30.01,NW,306,6.9,6.9,34,0.00,,,0.00,WeatherDisplay:10.37,2013-02-24 21:43:00,
2013-02-24 16:44:00,51.2,23.8,30.01,NNW,333,10.4,10.4,34,0.00,,,0.00,WeatherDisplay:10.37,2013-02-24 21:44:00,
2013-02-24 16:46:00,51.0,23.6,30.01,WNW,296,9.2,9.2,34,0.00,,,0.00,WeatherDisplay:10.37,2013-02-24 21:46:00,
2013-02-24 16:47:00,51.0,23.6,30.01,WNW,302,8.0,8.0,34,0.00,,,0.00,WeatherDisplay:10.37,2013-02-24 21:47:00,
2013-02-24 16:48:00,51.1,23.7,30.01,NNW,335,8.1,8.1,34,0.00,,,0.00,WeatherDisplay:10.37,2013-02-24 21:48:00,
2013-02-24 16:50:00,51.0,23.6,30.01,NW,304,5.0,11.0,34,0.00,,,0.00,WeatherDisplay:10.37,2013-02-24 21:50:00,
2013-02-24 16:51:00,51.0,24.3,30.01,West,261,5.8,5.8,35,0.00,,,0.00,WeatherDisplay:10.37,2013-02-24 21:51:00,
2013-02-24 16:52:00,51.1,25.0,30.01,WSW,243,9.2,9.2,36,0.00,,,0.00,WeatherDisplay:10.37,2013-02-24 21:52:00,
2013-02-24 16:54:00,51.2,25.1,30.01,WNW,299,6.9,6.9,36,0.00,,,0.00,WeatherDisplay:10.37,2013-02-24 21:54:00,
2013-02-24 16:55:00,51.3,24.5,30.01,WNW,286,6.0,6.0,35,0.00,,,0.00,WeatherDisplay:10.37,2013-02-24 21:55:00,
2013-02-24 16:56:00,51.3,23.8,30.01,West,280,7.0,7.0,34,0.00,,,0.00,WeatherDisplay:10.37,2013-02-24 21:56:00,
2013-02-24 16:57:00,51.2,23.8,30.01,WNW,298,11.0,11.0,34,0.00,,,0.00,WeatherDisplay:10.37,2013-02-24 21:57:00,
2013-02-24 16:59:00,51.0,23.6,30.01,West,263,7.0,7.0,34,0.00,,,0.00,WeatherDisplay:10.37,2013-02-24 21:59:00,
2013-02-24 17:00:00,51.0,23.6,30.01,WSW,239,6.9,6.9,34,0.00,,,0.00,WeatherDisplay:10.37,2013-02-24 22:00:00,
2013-02-24 17:02:00,50.9,23.5,30.01,WSW,251,8.1,8.1,34,0.00,,,0.00,WeatherDisplay:10.37,2013-02-24 22:02:00,
2013-02-24 17:04:00,50.8,24.1,30.01,West,261,8.1,8.1,35,0.00,,,0.00,WeatherDisplay:10.37,2013-02-24 22:04:00,
2013-02-24 17:05:00,50.8,24.1,30.01,WNW,300,6.9,6.9,35,0.00,,,0.00,WeatherDisplay:10.37,2013-02-24 22:05:00,
2013-02-24 17:07:00,50.7,24.0,30.01,WSW,251,9.2,9.2,35,0.00,,,0.00,WeatherDisplay:10.37,2013-02-24 22:07:00,
2013-02-24 17:09:00,50.7,23.3,30.01,West,261,5.8,5.8,34,0.00,,,0.00,WeatherDisplay:10.37,2013-02-24 22:09:00,
2013-02-24 17:11:00,50.7,24.0,30.01,NW,321,5.8,5.8,35,0.00,,,0.00,WeatherDisplay:10.37,2013-02-24 22:11:00,
2013-02-24 17:12:00,50.6,23.9,30.01,West,276,5.8,5.8,35,0.00,,,0.00,WeatherDisplay:10.37,2013-02-24 22:12:00,
2013-02-24 17:13:00,50.6,23.9,30.01,WSW,252,6.9,6.9,35,0.00,,,0.00,WeatherDisplay:10.37,2013-02-24 22:13:00,
2013-02-24 17:14:00,50.5,22.4,30.02,WNW,296,13.8,13.8,33,0.00,,,0.00,WeatherDisplay:10.37,2013-02-24 22:14:00,
2013-02-24 17:16:00,50.3,22.3,30.02,WNW,299,6.9,6.9,33,0.00,,,0.00,WeatherDisplay:10.37,2013-02-24 22:16:00,
2013-02-24 17:17:00,50.3,23.7,30.02,NW,312,6.0,6.0,35,0.00,,,0.00,WeatherDisplay:10.37,2013-02-24 22:17:00,
2013-02-24 17:18:00,50.2,23.6,30.02,West,260,5.8,5.8,35,0.00,,,0.00,WeatherDisplay:10.37,2013-02-24 22:18:00,
2013-02-24 17:20:00,50.3,24.3,30.02,West,260,4.6,4.6,36,0.00,,,0.00,WeatherDisplay:10.37,2013-02-24 22:20:00,
2013-02-24 17:21:00,50.3,24.3,30.02,WNW,302,3.5,3.5,36,0.00,,,0.00,WeatherDisplay:10.37,2013-02-24 22:21:00,
2013-02-24 17:22:00,50.4,23.7,30.02,WNW,283,3.5,3.5,35,0.00,,,0.00,WeatherDisplay:10.37,2013-02-24 22:22:00,
2013-02-24 17:23:00,50.4,23.7,30.02,WNW,300,3.5,3.5,35,0.00,,,0.00,WeatherDisplay:10.37,2013-02-24 22:23:00,
2013-02-24 17:26:00,50.4,22.3,30.02,West,268,4.6,4.6,33,0.00,,,0.00,WeatherDisplay:10.37,2013-02-24 22:26:00,
2013-02-24 17:27:00,50.2,22.2,30.02,WNW,302,6.9,6.9,33,0.00,,,0.00,WeatherDisplay:10.37,2013-02-24 22:27:00,
2013-02-24 17:28:00,50.2,22.2,30.02,NW,315,6.0,6.0,33,0.00,,,0.00,WeatherDisplay:10.37,2013-02-24 22:28:00,
2013-02-24 17:31:00,50.0,22.7,30.02,WNW,302,4.6,4.6,34,0.00,,,0.00,WeatherDisplay:10.37,2013-02-24 22:31:00,
2013-02-24 17:32:00,50.0,22.7,30.02,NNW,330,4.6,4.6,34,0.00,,,0.00,WeatherDisplay:10.37,2013-02-24 22:32:00,
2013-02-24 17:33:00,49.9,22.6,30.02,NNW,333,4.0,4.0,34,0.00,,,0.00,WeatherDisplay:10.37,2013-02-24 22:33:00,
2013-02-24 17:36:00,49.7,21.7,30.02,NW,316,8.0,8.0,33,0.00,,,0.00,WeatherDisplay:10.37,2013-02-24 22:36:00,
2013-02-24 17:37:00,49.6,21.6,30.02,NW,309,8.1,8.1,33,0.00,,,0.00,WeatherDisplay:10.37,2013-02-24 22:37:00,
2013-02-24 17:38:00,49.5,21.5,30.02,SW,215,8.1,8.1,33,0.00,,,0.00,WeatherDisplay:10.37,2013-02-24 22:38:00,
2013-02-24 17:41:00,49.4,22.2,30.02,West,266,4.6,4.6,34,0.00,,,0.00,WeatherDisplay:10.37,2013-02-24 22:41:00,
2013-02-24 17:42:00,49.4,22.2,30.02,WNW,298,7.0,7.0,34,0.00,,,0.00,WeatherDisplay:10.37,2013-02-24 22:42:00,
2013-02-24 17:43:00,49.3,21.4,30.02,NW,314,8.1,8.1,33,0.00,,,0.00,WeatherDisplay:10.37,2013-02-24 22:43:00,
2013-02-24 17:46:00,49.1,22.6,30.02,NW,315,4.6,4.6,35,0.00,,,0.00,WeatherDisplay:10.37,2013-02-24 22:46:00,
2013-02-24 17:47:00,49.1,21.9,30.02,NW,317,4.0,4.0,34,0.00,,,0.00,WeatherDisplay:10.37,2013-02-24 22:47:00,
2013-02-24 17:48:00,49.1,21.9,30.02,NNW,333,6.0,6.0,34,0.00,,,0.00,WeatherDisplay:10.37,2013-02-24 22:48:00,
2013-02-24 17:52:00,48.9,21.7,30.02,WNW,286,2.3,2.7,34,0.00,,,0.00,WeatherDisplay:10.37,2013-02-24 22:52:00,
2013-02-24 17:53:00,48.8,21.6,30.02,WNW,293,3.5,3.5,34,0.00,,,0.00,WeatherDisplay:10.37,2013-02-24 22:53:00,
2013-02-24 17:57:00,48.6,22.1,30.02,NW,312,3.5,3.5,35,0.00,,,0.00,WeatherDisplay:10.37,2013-02-24 22:57:00,
2013-02-24 17:58:00,48.5,22.7,30.02,WSW,248,3.5,3.5,36,0.00,,,0.00,WeatherDisplay:10.37,2013-02-24 22:58:00,
2013-02-24 17:59:00,48.4,22.6,30.02,West,265,5.0,5.0,36,0.00,,,0.00,WeatherDisplay:10.37,2013-02-24 22:59:00,
2013-02-24 18:02:00,48.3,22.5,30.02,WNW,298,2.0,2.0,36,0.00,,,0.00,WeatherDisplay:10.37,2013-02-24 23:02:00,
2013-02-24 18:04:00,48.2,22.5,30.03,West,262,1.1,1.1,36,0.00,,,0.00,WeatherDisplay:10.37,2013-02-24 23:04:00,
2013-02-24 18:07:00,47.9,22.2,30.03,WSW,254,2.3,2.3,36,0.00,,,0.00,WeatherDisplay:10.37,2013-02-24 23:07:00,
2013-02-24 18:08:00,47.7,22.7,30.03,West,262,3.0,3.0,37,0.00,,,0.00,WeatherDisplay:10.37,2013-02-24 23:08:00,
2013-02-24 18:09:00,47.5,22.5,30.03,West,263,3.5,3.5,37,0.00,,,0.00,WeatherDisplay:10.37,2013-02-24 23:09:00,
2013-02-24 18:10:00,47.4,22.4,30.03,WNW,297,4.0,4.0,37,0.00,,,0.00,WeatherDisplay:10.37,2013-02-24 23:10:00,
2013-02-24 18:12:00,47.0,22.0,30.03,WSW,254,3.0,3.0,37,0.00,,,0.00,WeatherDisplay:10.37,2013-02-24 23:12:00,
2013-02-24 18:13:00,46.8,22.5,30.03,WSW,258,3.5,3.5,38,0.00,,,0.00,WeatherDisplay:10.37,2013-02-24 23:13:00,
2013-02-24 18:14:00,46.5,21.6,30.03,West,259,1.1,1.1,37,0.00,,,0.00,WeatherDisplay:10.37,2013-02-24 23:14:00,
2013-02-24 18:15:00,46.4,21.5,30.03,West,264,2.3,2.3,37,0.00,,,0.00,WeatherDisplay:10.37,2013-02-24 23:15:00,
2013-02-24 18:17:00,46.1,21.9,30.03,West,264,1.1,1.1,38,0.00,,,0.00,WeatherDisplay:10.37,2013-02-24 23:17:00,
2013-02-24 18:18:00,45.9,21.7,30.03,West,264,1.1,0.0,38,0.00,,,0.00,WeatherDisplay:10.37,2013-02-24 23:18:00,
2013-02-24 18:19:00,45.7,22.1,30.03,WSW,257,1.1,1.1,39,0.00,,,0.00,WeatherDisplay:10.37,2013-02-24 23:19:00,
2013-02-24 18:20:00,45.6,21.4,30.03,WNW,286,3.5,3.5,38,0.00,,,0.00,WeatherDisplay:10.37,2013-02-24 23:20:00,
2013-02-24 18:22:00,45.4,21.9,30.03,West,267,1.1,1.1,39,0.00,,,0.00,WeatherDisplay:10.37,2013-02-24 23:22:00,
2013-02-24 18:23:00,45.2,21.7,30.03,West,265,1.1,1.1,39,0.00,,,0.00,WeatherDisplay:10.37,2013-02-24 23:23:00,
2013-02-24 18:24:00,45.1,22.2,30.03,West,264,1.1,1.1,40,0.00,,,0.00,WeatherDisplay:10.37,2013-02-24 23:24:00,
2013-02-24 18:25:00,45.0,22.1,30.03,West,264,1.1,0.0,40,0.00,,,0.00,WeatherDisplay:10.37,2013-02-24 23:25:00,
2013-02-24 18:27:00,44.8,21.3,30.03,West,260,2.3,2.3,39,0.00,,,0.00,WeatherDisplay:10.37,2013-02-24 23:27:00,
2013-02-24 18:28:00,44.6,21.7,30.03,West,260,1.1,1.1,40,0.00,,,0.00,WeatherDisplay:10.37,2013-02-24 23:28:00,
2013-02-24 18:29:00,44.5,21.6,30.04,West,269,1.1,1.1,40,0.00,,,0.00,WeatherDisplay:10.37,2013-02-24 23:29:00,
2013-02-24 18:31:00,44.4,21.6,30.04,NW,304,4.6,4.6,40,0.00,,,0.00,WeatherDisplay:10.37,2013-02-24 23:31:00,
2013-02-24 18:33:00,44.2,22.0,30.04,West,262,2.3,2.3,41,0.00,,,0.00,WeatherDisplay:10.37,2013-02-24 23:33:00,
2013-02-24 18:34:00,44.1,21.9,30.04,West,262,2.3,2.3,41,0.00,,,0.00,WeatherDisplay:10.37,2013-02-24 23:34:00,
2013-02-24 18:35:00,44.0,21.8,30.04,WSW,251,2.3,2.3,41,0.00,,,0.00,WeatherDisplay:10.37,2013-02-24 23:35:00,
2013-02-24 18:36:00,43.8,22.2,30.04,WSW,248,1.1,1.1,42,0.00,,,0.00,WeatherDisplay:10.37,2013-02-24 23:36:00,
2013-02-24 18:38:00,43.7,21.5,30.04,WNW,290,3.5,3.5,41,0.00,,,0.00,WeatherDisplay:10.37,2013-02-24 23:38:00,
2013-02-24 18:39:00,43.7,21.5,30.04,West,260,3.5,3.5,41,0.00,,,0.00,WeatherDisplay:10.37,2013-02-24 23:39:00,
2013-02-24 18:40:00,43.7,21.5,30.04,West,264,1.0,3.0,41,0.00,,,0.00,WeatherDisplay:10.37,2013-02-24 23:40:00,
2013-02-24 18:41:00,43.6,22.0,30.04,WSW,248,2.3,2.3,42,0.00,,,0.00,WeatherDisplay:10.37,2013-02-24 23:41:00,
2013-02-24 18:43:00,43.5,22.5,30.04,WNW,290,2.3,0.0,43,0.00,,,0.00,WeatherDisplay:10.37,2013-02-24 23:43:00,
2013-02-24 18:44:00,43.4,22.4,30.04,WNW,283,1.1,1.1,43,0.00,,,0.00,WeatherDisplay:10.37,2013-02-24 23:44:00,
2013-02-24 18:45:00,43.3,22.3,30.04,NW,305,2.3,2.3,43,0.00,,,0.00,WeatherDisplay:10.37,2013-02-24 23:45:00,
2013-02-24 18:46:00,43.2,21.6,30.04,WNW,292,2.3,2.3,42,0.00,,,0.00,WeatherDisplay:10.37,2013-02-24 23:46:00,
2013-02-24 18:49:00,43.2,21.6,30.04,WSW,255,3.5,3.5,42,0.00,,,0.00,WeatherDisplay:10.37,2013-02-24 23:49:00,
2013-02-24 18:50:00,43.1,21.5,30.04,WSW,257,2.3,2.3,42,0.00,,,0.00,WeatherDisplay:10.37,2013-02-24 23:50:00,
2013-02-24 18:52:00,43.1,22.1,30.04,WSW,249,2.3,2.3,43,0.00,,,0.00,WeatherDisplay:10.37,2013-02-24 23:52:00,
2013-02-24 18:54:00,42.9,21.9,30.05,WSW,245,2.3,2.3,43,0.00,,,0.00,WeatherDisplay:10.37,2013-02-24 23:54:00,
2013-02-24 18:56:00,42.8,22.4,30.05,West,281,2.3,2.3,44,0.00,,,0.00,WeatherDisplay:10.37,2013-02-24 23:56:00,
2013-02-24 18:57:00,42.8,21.8,30.05,West,270,2.3,2.3,43,0.00,,,0.00,WeatherDisplay:10.37,2013-02-24 23:57:00,
2013-02-24 18:59:00,42.7,22.3,30.05,WSW,257,2.3,2.3,44,0.00,,,0.00,WeatherDisplay:10.37,2013-02-24 23:59:00,
2013-02-24 19:02:00,42.5,22.1,30.05,West,264,1.1,0.0,44,0.00,,,0.00,WeatherDisplay:10.37,2013-02-25 00:02:00,
2013-02-24 19:04:00,42.3,22.4,30.05,West,264,0.0,0.0,45,0.00,CLR,,0.00,WeatherDisplay:10.37,2013-02-25 00:04:00,
2013-02-24 19:07:00,42.1,22.3,30.06,West,264,1.1,1.1,45,0.00,CLR,,0.00,WeatherDisplay:10.37,2013-02-25 00:07:00,
2013-02-24 19:09:00,41.9,22.6,30.06,West,264,0.0,0.0,46,0.00,CLR,,0.00,WeatherDisplay:10.37,2013-02-25 00:09:00,
2013-02-24 19:12:00,41.6,23.3,30.06,West,264,0.0,0.0,48,0.00,CLR,,0.00,WeatherDisplay:10.37,2013-02-25 00:12:00,
2013-02-24 19:14:00,41.3,22.6,30.06,West,264,0.0,0.0,47,0.00,CLR,,0.00,WeatherDisplay:10.37,2013-02-25 00:14:00,
2013-02-24 19:17:00,41.0,23.3,30.06,West,264,0.0,0.0,49,0.00,CLR,,0.00,WeatherDisplay:10.37,2013-02-25 00:17:00,
2013-02-24 19:19:00,40.6,22.9,30.07,West,264,0.0,0.0,49,0.00,CLR,,0.00,WeatherDisplay:10.37,2013-02-25 00:19:00,
2013-02-24 19:20:00,40.6,23.4,30.07,West,264,0.0,0.0,50,0.00,CLR,,0.00,WeatherDisplay:10.37,2013-02-25 00:20:00,
2013-02-24 19:22:00,40.0,23.3,30.07,West,264,1.1,1.1,51,0.00,CLR,,0.00,WeatherDisplay:10.37,2013-02-25 00:22:00,
2013-02-24 19:24:00,39.6,22.9,30.07,West,264,1.1,1.1,51,0.00,CLR,,0.00,WeatherDisplay:10.37,2013-02-25 00:24:00,
2013-02-24 19:25:00,39.5,23.3,30.07,West,264,1.1,1.1,52,0.00,CLR,,0.00,WeatherDisplay:10.37,2013-02-25 00:25:00,
2013-02-24 19:27:00,39.2,23.0,30.07,West,264,1.1,1.1,52,0.00,CLR,,0.00,WeatherDisplay:10.37,2013-02-25 00:27:00,
2013-02-24 19:29:00,39.0,22.8,30.07,West,264,1.1,0.0,52,0.00,CLR,,0.00,WeatherDisplay:10.37,2013-02-25 00:29:00,
2013-02-24 19:30:00,38.9,23.2,30.07,West,264,1.1,0.0,53,0.00,CLR,,0.00,WeatherDisplay:10.37,2013-02-25 00:30:00,
2013-02-24 19:33:00,38.6,23.4,30.07,West,264,0.0,0.0,54,0.00,CLR,,0.00,WeatherDisplay:10.37,2013-02-25 00:33:00,
2013-02-24 19:35:00,38.4,23.2,30.07,West,264,0.0,0.0,54,0.00,CLR,,0.00,WeatherDisplay:10.37,2013-02-25 00:35:00,
2013-02-24 19:38:00,37.8,23.5,30.07,West,264,0.0,0.0,56,0.00,CLR,,0.00,WeatherDisplay:10.37,2013-02-25 00:38:00,
2013-02-24 19:40:00,37.6,23.7,30.07,West,264,1.1,1.1,57,0.00,CLR,,0.00,WeatherDisplay:10.37,2013-02-25 00:40:00,
2013-02-24 19:43:00,37.1,24.1,30.07,West,264,0.0,0.0,59,0.00,CLR,,0.00,WeatherDisplay:10.37,2013-02-25 00:43:00,
2013-02-24 19:45:00,36.9,23.5,30.07,West,264,0.0,0.0,58,0.00,CLR,,0.00,WeatherDisplay:10.37,2013-02-25 00:45:00,
2013-02-24 19:49:00,36.7,23.3,30.07,West,264,0.0,0.0,58,0.00,CLR,,0.00,WeatherDisplay:10.37,2013-02-25 00:49:00,
2013-02-24 19:50:00,36.6,23.6,30.07,West,264,0.0,0.0,59,0.00,CLR,,0.00,WeatherDisplay:10.37,2013-02-25 00:50:00,
2013-02-24 19:51:00,36.6,23.6,30.07,West,264,1.1,1.1,59,0.00,CLR,,0.00,WeatherDisplay:10.37,2013-02-25 00:51:00,
2013-02-24 19:54:00,36.5,23.1,30.07,West,264,0.0,0.0,58,0.00,CLR,,0.00,WeatherDisplay:10.37,2013-02-25 00:54:00,
2013-02-24 19:55:00,36.5,23.1,30.07,West,264,0.0,0.0,58,0.00,CLR,,0.00,WeatherDisplay:10.37,2013-02-25 00:55:00,
2013-02-24 19:56:00,36.4,23.4,30.07,West,264,0.0,0.0,59,0.00,CLR,,0.00,WeatherDisplay:10.37,2013-02-25 00:56:00,
2013-02-24 19:59:00,36.0,23.8,30.07,West,264,0.0,0.0,61,0.00,CLR,,0.00,WeatherDisplay:10.37,2013-02-25 00:59:00,
2013-02-24 20:01:00,35.8,24.0,30.08,West,264,1.1,0.0,62,0.00,CLR,,0.00,WeatherDisplay:10.37,2013-02-25 01:01:00,
2013-02-24 20:02:00,35.7,24.3,30.08,West,264,0.0,0.0,63,0.00,CLR,,0.00,WeatherDisplay:10.37,2013-02-25 01:02:00,
2013-02-24 20:04:00,35.4,24.0,30.08,West,264,0.0,0.0,63,0.00,CLR,,0.00,WeatherDisplay:10.37,2013-02-25 01:04:00,
2013-02-24 20:06:00,35.1,24.1,30.08,West,264,0.0,0.0,64,0.00,CLR,,0.00,WeatherDisplay:10.37,2013-02-25 01:06:00,
2013-02-24 20:07:00,35.0,24.4,30.08,West,264,1.1,1.1,65,0.00,CLR,,0.00,WeatherDisplay:10.37,2013-02-25 01:07:00,
2013-02-24 20:09:00,34.7,23.8,30.08,West,264,1.1,1.1,64,0.00,CLR,,0.00,WeatherDisplay:10.37,2013-02-25 01:09:00,
2013-02-24 20:11:00,34.4,23.8,30.08,West,264,0.0,0.0,65,0.00,CLR,,0.00,WeatherDisplay:10.37,2013-02-25 01:11:00,
2013-02-24 20:13:00,34.2,23.7,30.08,West,264,0.0,0.0,65,0.00,CLR,,0.00,WeatherDisplay:10.37,2013-02-25 01:13:00,
2013-02-24 20:14:00,34.1,23.6,30.08,West,264,1.1,1.1,65,0.00,CLR,,0.00,WeatherDisplay:10.37,2013-02-25 01:14:00,
2013-02-24 20:16:00,34.0,23.8,30.08,West,264,0.0,0.1,66,0.00,CLR,,0.00,WeatherDisplay:10.37,2013-02-25 01:16:00,
2013-02-24 20:18:00,33.7,23.9,30.08,West,264,1.1,1.1,67,0.00,CLR,,0.00,WeatherDisplay:10.37,2013-02-25 01:18:00,
2013-02-24 20:19:00,33.6,23.8,30.09,West,264,1.1,1.1,67,0.00,CLR,,0.00,WeatherDisplay:10.37,2013-02-25 01:19:00,
2013-02-24 20:21:00,33.5,23.7,30.09,West,264,0.0,0.0,67,0.00,CLR,,0.00,WeatherDisplay:10.37,2013-02-25 01:21:00,
2013-02-24 20:22:00,33.5,23.7,30.08,West,264,0.0,0.0,67,0.00,CLR,,0.00,WeatherDisplay:10.37,2013-02-25 01:22:00,
2013-02-24 20:23:00,33.3,23.5,30.09,West,264,0.0,0.0,67,0.00,CLR,,0.00,WeatherDisplay:10.37,2013-02-25 01:23:00,
2013-02-24 20:25:00,33.3,23.5,30.09,West,264,0.0,0.0,67,0.00,CLR,,0.00,WeatherDisplay:10.37,2013-02-25 01:25:00,
2013-02-24 20:27:00,33.2,23.8,30.09,West,264,0.0,0.0,68,0.00,CLR,,0.00,WeatherDisplay:10.37,2013-02-25 01:27:00,
2013-02-24 20:28:00,33.1,23.7,30.09,West,264,0.0,0.0,68,0.00,CLR,,0.00,WeatherDisplay:10.37,2013-02-25 01:28:00,
2013-02-24 20:29:00,33.0,23.6,30.09,West,264,0.0,0.0,68,0.00,CLR,,0.00,WeatherDisplay:10.37,2013-02-25 01:29:00,
2013-02-24 20:30:00,32.9,23.8,30.09,West,264,0.0,0.0,69,0.00,CLR,,0.00,WeatherDisplay:10.37,2013-02-25 01:30:00,
2013-02-24 20:32:00,32.7,23.6,30.09,West,264,1.1,1.1,69,0.00,CLR,,0.00,WeatherDisplay:10.37,2013-02-25 01:32:00,
2013-02-24 20:33:00,32.6,23.9,30.09,West,264,0.0,0.0,70,0.00,CLR,,0.00,WeatherDisplay:10.37,2013-02-25 01:33:00,
2013-02-24 20:34:00,32.4,23.7,30.09,West,264,0.0,0.1,70,0.00,CLR,,0.00,WeatherDisplay:10.37,2013-02-25 01:34:00,
2013-02-24 20:35:00,32.4,23.7,30.09,West,264,1.1,1.1,70,0.00,CLR,,0.00,WeatherDisplay:10.37,2013-02-25 01:35:00,
2013-02-24 20:37:00,32.3,23.6,30.09,West,264,1.1,1.1,70,0.00,CLR,,0.00,WeatherDisplay:10.37,2013-02-25 01:37:00,
2013-02-24 20:38:00,32.2,23.8,30.09,West,264,1.1,0.0,71,0.00,CLR,,0.00,WeatherDisplay:10.37,2013-02-25 01:38:00,
2013-02-24 20:40:00,32.1,23.8,30.09,West,264,0.0,0.0,71,0.00,CLR,,0.00,WeatherDisplay:10.37,2013-02-25 01:40:00,
2013-02-24 20:42:00,31.9,23.6,30.09,West,264,0.0,0.0,71,0.00,CLR,,0.00,WeatherDisplay:10.37,2013-02-25 01:42:00,
2013-02-24 20:44:00,31.8,23.5,30.09,West,264,0.0,0.2,71,0.00,CLR,,0.00,WeatherDisplay:10.37,2013-02-25 01:44:00,
2013-02-24 20:45:00,31.7,23.4,30.09,West,264,1.1,0.0,71,0.00,CLR,,0.00,WeatherDisplay:10.37,2013-02-25 01:45:00,
2013-02-24 20:46:00,31.7,23.4,30.09,West,264,0.0,0.0,71,0.00,CLR,,0.00,WeatherDisplay:10.37,2013-02-25 01:46:00,
2013-02-24 20:47:00,31.6,23.3,30.09,West,264,0.0,0.0,71,0.00,CLR,,0.00,WeatherDisplay:10.37,2013-02-25 01:47:00,
2013-02-24 20:49:00,31.5,23.2,30.09,West,264,0.0,0.0,71,0.00,CLR,,0.00,WeatherDisplay:10.37,2013-02-25 01:49:00,
2013-02-24 20:50:00,31.4,23.4,30.09,West,264,0.0,0.0,72,0.00,CLR,,0.00,WeatherDisplay:10.37,2013-02-25 01:50:00,
2013-02-24 20:51:00,31.3,23.3,30.09,West,264,0.0,0.0,72,0.00,CLR,,0.00,WeatherDisplay:10.37,2013-02-25 01:51:00,
2013-02-24 20:52:00,31.2,23.2,30.09,West,264,0.0,0.0,72,0.00,CLR,,0.00,WeatherDisplay:10.37,2013-02-25 01:52:00,
2013-02-24 20:54:00,31.1,23.1,30.09,West,264,0.0,0.0,72,0.00,CLR,,0.00,WeatherDisplay:10.37,2013-02-25 01:54:00,
2013-02-24 20:56:00,31.0,23.4,30.09,West,264,0.0,0.0,73,0.00,CLR,,0.00,WeatherDisplay:10.37,2013-02-25 01:56:00,
2013-02-24 20:58:00,30.8,23.2,30.09,West,264,0.0,0.0,73,0.00,CLR,,0.00,WeatherDisplay:10.37,2013-02-25 01:58:00,
2013-02-24 20:59:00,30.8,23.2,30.09,West,264,0.0,0.0,73,0.00,CLR,,0.00,WeatherDisplay:10.37,2013-02-25 01:59:00,
2013-02-24 21:01:00,30.6,23.0,30.09,West,264,0.0,0.0,73,0.00,CLR,,0.00,WeatherDisplay:10.37,2013-02-25 02:01:00,
2013-02-24 21:02:00,30.5,22.9,30.09,West,264,0.0,0.0,73,0.00,CLR,,0.00,WeatherDisplay:10.37,2013-02-25 02:02:00,
2013-02-24 21:03:00,30.4,23.1,30.09,West,264,0.0,0.0,74,0.00,CLR,,0.00,WeatherDisplay:10.37,2013-02-25 02:03:00,
2013-02-24 21:05:00,30.3,23.3,30.09,West,264,0.0,0.0,75,0.00,CLR,,0.00,WeatherDisplay:10.37,2013-02-25 02:05:00,
2013-02-24 21:06:00,30.2,23.2,30.09,West,264,0.0,0.0,75,0.00,CLR,,0.00,WeatherDisplay:10.37,2013-02-25 02:06:00,
2013-02-24 21:07:00,30.2,23.2,30.10,West,264,0.0,0.0,75,0.00,CLR,,0.00,WeatherDisplay:10.37,2013-02-25 02:07:00,
2013-02-24 21:08:00,30.1,23.4,30.09,West,264,0.0,0.0,76,0.00,CLR,,0.00,WeatherDisplay:10.37,2013-02-25 02:08:00,
2013-02-24 21:10:00,30.1,23.4,30.09,West,264,0.0,0.0,76,0.00,CLR,,0.00,WeatherDisplay:10.37,2013-02-25 02:10:00,
2013-02-24 21:11:00,30.1,23.4,30.09,West,264,0.0,0.0,76,0.00,CLR,,0.00,WeatherDisplay:10.37,2013-02-25 02:11:00,
2013-02-24 21:12:00,30.1,23.4,30.09,West,264,0.0,0.0,76,0.00,CLR,,0.00,WeatherDisplay:10.37,2013-02-25 02:12:00,
2013-02-24 21:13:00,30.1,23.4,30.09,West,264,0.0,0.0,76,0.00,CLR,,0.00,WeatherDisplay:10.37,2013-02-25 02:13:00,
2013-02-24 21:15:00,30.1,23.4,30.09,West,264,0.0,0.0,76,0.00,CLR,,0.00,WeatherDisplay:10.37,2013-02-25 02:15:00,
2013-02-24 21:16:00,30.1,23.4,30.09,West,264,0.0,0.0,76,0.00,CLR,,0.00,WeatherDisplay:10.37,2013-02-25 02:16:00,
2013-02-24 21:17:00,30.1,23.4,30.09,West,264,0.0,0.0,76,0.00,CLR,,0.00,WeatherDisplay:10.37,2013-02-25 02:17:00,
2013-02-24 21:18:00,30.0,23.4,30.10,West,264,0.0,0.0,76,0.00,CLR,,0.00,WeatherDisplay:10.37,2013-02-25 02:18:00,
2013-02-24 21:21:00,29.9,23.3,30.09,West,264,0.0,0.0,76,0.00,CLR,,0.00,WeatherDisplay:10.37,2013-02-25 02:21:00,
2013-02-24 21:22:00,29.8,23.2,30.09,West,264,0.0,0.0,76,0.00,CLR,,0.00,WeatherDisplay:10.37,2013-02-25 02:22:00,
2013-02-24 21:24:00,29.7,23.1,30.10,West,264,0.0,0.0,76,0.00,CLR,,0.00,WeatherDisplay:10.37,2013-02-25 02:24:00,
2013-02-24 21:26:00,29.6,23.3,30.10,West,264,0.0,0.0,77,0.00,CLR,,0.00,WeatherDisplay:10.37,2013-02-25 02:26:00,
2013-02-24 21:27:00,29.5,23.2,30.10,West,264,0.0,0.0,77,0.00,CLR,,0.00,WeatherDisplay:10.37,2013-02-25 02:27:00,
2013-02-24 21:28:00,29.5,23.2,30.10,West,264,0.0,0.0,77,0.00,CLR,,0.00,WeatherDisplay:10.37,2013-02-25 02:28:00,
2013-02-24 21:29:00,29.4,23.1,30.10,West,264,0.0,0.0,77,0.00,CLR,,0.00,WeatherDisplay:10.37,2013-02-25 02:29:00,
2013-02-24 21:31:00,29.4,23.4,30.10,West,264,0.0,0.0,78,0.00,CLR,,0.00,WeatherDisplay:10.37,2013-02-25 02:31:00,
2013-02-24 21:32:00,29.4,23.4,30.09,West,264,0.0,0.0,78,0.00,CLR,,0.00,WeatherDisplay:10.37,2013-02-25 02:32:00,
2013-02-24 21:33:00,29.4,23.4,30.09,West,264,0.0,0.0,78,0.00,CLR,,0.00,WeatherDisplay:10.37,2013-02-25 02:33:00,
2013-02-24 21:34:00,29.4,23.4,30.10,West,264,0.0,0.0,78,0.00,CLR,,0.00,WeatherDisplay:10.37,2013-02-25 02:34:00,
2013-02-24 21:37:00,29.3,23.6,30.09,West,264,0.0,0.0,79,0.00,CLR,,0.00,WeatherDisplay:10.37,2013-02-25 02:37:00,
2013-02-24 21:38:00,29.3,23.6,30.09,West,264,0.0,0.0,79,0.00,CLR,,0.00,WeatherDisplay:10.37,2013-02-25 02:38:00,
2013-02-24 21:39:00,29.2,23.5,30.09,West,264,0.0,0.0,79,0.00,CLR,,0.00,WeatherDisplay:10.37,2013-02-25 02:39:00,
2013-02-24 21:42:00,28.9,23.2,30.09,West,264,1.1,1.1,79,0.00,CLR,,0.00,WeatherDisplay:10.37,2013-02-25 02:42:00,
2013-02-24 21:43:00,28.9,23.2,30.09,West,264,1.1,1.1,79,0.00,CLR,,0.00,WeatherDisplay:10.37,2013-02-25 02:43:00,
2013-02-24 21:44:00,28.7,23.0,30.09,West,264,1.1,1.1,79,0.00,CLR,,0.00,WeatherDisplay:10.37,2013-02-25 02:44:00,
2013-02-24 21:47:00,28.6,23.2,30.09,SW,221,1.1,1.1,80,0.00,CLR,,0.00,WeatherDisplay:10.37,2013-02-25 02:47:00,
2013-02-24 21:48:00,28.6,23.2,30.09,SW,220,1.1,1.1,80,0.00,CLR,,0.00,WeatherDisplay:10.37,2013-02-25 02:48:00,
2013-02-24 21:49:00,28.6,23.2,30.09,SW,221,0.0,0.0,80,0.00,CLR,,0.00,WeatherDisplay:10.37,2013-02-25 02:49:00,
2013-02-24 21:52:00,28.8,23.4,30.09,SW,220,0.0,0.0,80,0.00,CLR,,0.00,WeatherDisplay:10.37,2013-02-25 02:52:00,
2013-02-24 21:53:00,28.8,23.4,30.09,SW,220,0.0,0.0,80,0.00,CLR,,0.00,WeatherDisplay:10.37,2013-02-25 02:53:00,
2013-02-24 21:54:00,28.9,23.5,30.09,SW,221,1.1,0.0,80,0.00,CLR,,0.00,WeatherDisplay:10.37,2013-02-25 02:54:00,
2013-02-24 21:56:00,29.0,23.3,30.09,SW,220,1.1,1.1,79,0.00,CLR,,0.00,WeatherDisplay:10.37,2013-02-25 02:56:00,
2013-02-24 21:57:00,29.0,23.3,30.09,SW,221,0.0,0.0,79,0.00,CLR,,0.00,WeatherDisplay:10.37,2013-02-25 02:57:00,
2013-02-24 21:58:00,29.0,23.0,30.09,SW,221,0.0,0.0,78,0.00,CLR,,0.00,WeatherDisplay:10.37,2013-02-25 02:58:00,
2013-02-24 21:59:00,29.0,23.0,30.09,SW,220,0.0,0.0,78,0.00,CLR,,0.00,WeatherDisplay:10.37,2013-02-25 02:59:00,
2013-02-24 22:01:00,29.0,23.0,30.09,SW,220,0.0,0.0,78,0.00,CLR,,0.00,WeatherDisplay:10.37,2013-02-25 03:01:00,
2013-02-24 22:02:00,28.9,22.9,30.09,SW,221,0.0,0.0,78,0.00,CLR,,0.00,WeatherDisplay:10.37,2013-02-25 03:02:00,
2013-02-24 22:03:00,28.9,22.9,30.09,SW,221,0.0,0.0,78,0.00,,,0.00,WeatherDisplay:10.37,2013-02-25 03:03:00,
2013-02-24 22:04:00,28.8,22.8,30.09,SW,221,0.0,0.0,78,0.00,,,0.00,WeatherDisplay:10.37,2013-02-25 03:04:00,
2013-02-24 22:06:00,28.6,22.6,30.09,SW,220,0.0,0.0,78,0.00,,,0.00,WeatherDisplay:10.37,2013-02-25 03:06:00,
2013-02-24 22:08:00,28.5,22.8,30.09,SW,221,0.0,0.0,79,0.00,,,0.00,WeatherDisplay:10.37,2013-02-25 03:08:00,
2013-02-24 22:09:00,28.4,23.0,30.09,SW,220,0.0,0.0,80,0.00,,,0.00,WeatherDisplay:10.37,2013-02-25 03:09:00,
2013-02-24 22:11:00,28.3,22.6,30.09,SW,221,0.0,0.0,79,0.00,,,0.00,WeatherDisplay:10.37,2013-02-25 03:11:00,
2013-02-24 22:13:00,28.2,22.5,30.09,SW,220,0.0,0.0,79,0.00,,,0.00,WeatherDisplay:10.37,2013-02-25 03:13:00,
2013-02-24 22:14:00,28.1,22.7,30.09,SW,220,0.0,0.0,80,0.00,,,0.00,WeatherDisplay:10.37,2013-02-25 03:14:00,
2013-02-24 22:16:00,28.0,22.6,30.09,SW,221,0.0,0.0,80,0.00,,,0.00,WeatherDisplay:10.37,2013-02-25 03:16:00,
2013-02-24 22:18:00,28.0,22.6,30.09,SW,220,1.1,1.1,80,0.00,,,0.00,WeatherDisplay:10.37,2013-02-25 03:18:00,
2013-02-24 22:19:00,28.0,22.6,30.09,SW,221,1.1,1.1,80,0.00,,,0.00,WeatherDisplay:10.37,2013-02-25 03:19:00,
2013-02-24 22:22:00,28.1,22.7,30.09,South,180,2.3,0.0,80,0.00,,,0.00,WeatherDisplay:10.37,2013-02-25 03:22:00,
2013-02-24 22:23:00,28.2,22.5,30.09,South,181,1.1,0.0,79,0.00,,,0.00,WeatherDisplay:10.37,2013-02-25 03:23:00,
2013-02-24 22:24:00,28.2,22.5,30.09,South,180,0.0,0.0,79,0.00,,,0.00,WeatherDisplay:10.37,2013-02-25 03:24:00,
2013-02-24 22:27:00,28.3,22.6,30.09,South,180,1.1,0.0,79,0.00,,,0.00,WeatherDisplay:10.37,2013-02-25 03:27:00,
2013-02-24 22:28:00,28.3,22.6,30.09,South,181,0.0,0.0,79,0.00,,,0.00,WeatherDisplay:10.37,2013-02-25 03:28:00,
2013-02-24 22:29:00,28.2,22.5,30.09,South,180,0.0,0.0,79,0.00,,,0.00,WeatherDisplay:10.37,2013-02-25 03:29:00,
2013-02-24 22:30:00,28.2,22.5,30.09,South,180,0.0,0.0,79,0.00,,,0.00,WeatherDisplay:10.37,2013-02-25 03:30:00,
2013-02-24 22:32:00,28.0,22.0,30.09,South,180,0.0,0.0,78,0.00,,,0.00,WeatherDisplay:10.37,2013-02-25 03:32:00,
2013-02-24 22:34:00,27.9,22.2,30.09,South,180,0.0,0.0,79,0.00,,,0.00,WeatherDisplay:10.37,2013-02-25 03:34:00,
2013-02-24 22:35:00,27.9,22.2,30.09,South,181,0.0,0.0,79,0.00,,,0.00,WeatherDisplay:10.37,2013-02-25 03:35:00,
2013-02-24 22:38:00,27.7,22.0,30.09,South,180,0.0,0.0,79,0.00,,,0.00,WeatherDisplay:10.37,2013-02-25 03:38:00,
2013-02-24 22:39:00,27.6,21.9,30.09,South,181,0.0,0.0,79,0.00,,,0.00,WeatherDisplay:10.37,2013-02-25 03:39:00,
2013-02-24 22:40:00,27.6,21.9,30.09,South,180,0.0,0.0,79,0.00,,,0.00,WeatherDisplay:10.37,2013-02-25 03:40:00,
2013-02-24 22:43:00,27.4,22.0,30.09,South,181,0.0,0.0,80,0.00,,,0.00,WeatherDisplay:10.37,2013-02-25 03:43:00,
2013-02-24 22:44:00,27.4,22.0,30.09,South,181,1.1,1.1,80,0.00,,,0.00,WeatherDisplay:10.37,2013-02-25 03:44:00,
2013-02-24 22:45:00,27.4,22.0,30.09,South,181,1.1,1.1,80,0.00,,,0.00,WeatherDisplay:10.37,2013-02-25 03:45:00,
2013-02-24 22:48:00,27.3,22.2,30.09,South,180,0.0,0.0,81,0.00,,,0.00,WeatherDisplay:10.37,2013-02-25 03:48:00,
2013-02-24 22:49:00,27.3,22.2,30.09,South,180,1.1,1.4,81,0.00,,,0.00,WeatherDisplay:10.37,2013-02-25 03:49:00,
2013-02-24 22:50:00,27.3,22.2,30.09,South,180,2.3,2.3,81,0.00,,,0.00,WeatherDisplay:10.37,2013-02-25 03:50:00,
2013-02-24 22:51:00,27.3,22.2,30.09,South,180,2.3,2.3,81,0.00,,,0.00,WeatherDisplay:10.37,2013-02-25 03:51:00,
2013-02-24 22:53:00,27.3,22.2,30.09,South,180,0.0,0.0,81,0.00,,,0.00,WeatherDisplay:10.37,2013-02-25 03:53:00,
2013-02-24 22:54:00,27.2,22.1,30.09,South,181,1.1,1.1,81,0.00,,,0.00,WeatherDisplay:10.37,2013-02-25 03:54:00,
2013-02-24 22:55:00,27.2,22.1,30.09,South,180,1.1,1.1,81,0.00,,,0.00,WeatherDisplay:10.37,2013-02-25 03:55:00,
2013-02-24 22:56:00,27.2,22.1,30.09,South,180,1.1,1.1,81,0.00,,,0.00,WeatherDisplay:10.37,2013-02-25 03:56:00,
2013-02-24 22:58:00,27.2,22.1,30.09,South,180,0.0,0.0,81,0.00,,,0.00,WeatherDisplay:10.37,2013-02-25 03:58:00,
2013-02-24 23:00:00,27.2,22.1,30.09,South,180,0.0,0.0,81,0.00,,,0.00,WeatherDisplay:10.37,2013-02-25 04:00:00,
2013-02-24 23:01:00,27.2,22.1,30.09,South,180,0.0,0.0,81,0.00,,,0.00,WeatherDisplay:10.37,2013-02-25 04:01:00,
2013-02-24 23:02:00,27.2,22.1,30.09,South,180,0.0,0.0,81,0.00,,,0.00,WeatherDisplay:10.37,2013-02-25 04:02:00,
2013-02-24 23:03:00,27.1,21.7,30.09,South,180,0.0,0.0,80,0.00,,,0.00,WeatherDisplay:10.37,2013-02-25 04:03:00,
2013-02-24 23:05:00,27.0,21.9,30.09,South,180,0.0,0.0,81,0.00,,,0.00,WeatherDisplay:10.37,2013-02-25 04:05:00,
2013-02-24 23:07:00,26.9,21.6,30.09,South,181,0.0,0.0,80,0.00,,,0.00,WeatherDisplay:10.37,2013-02-25 04:07:00,
2013-02-24 23:09:00,26.7,21.7,30.09,South,180,0.0,0.0,81,0.00,,,0.00,WeatherDisplay:10.37,2013-02-25 04:09:00,
2013-02-24 23:10:00,26.7,21.7,30.09,South,180,0.0,0.0,81,0.00,,,0.00,WeatherDisplay:10.37,2013-02-25 04:10:00,
2013-02-24 23:12:00,26.6,21.8,30.09,South,181,0.0,0.0,82,0.00,,,0.00,WeatherDisplay:10.37,2013-02-25 04:12:00,
2013-02-24 23:13:00,26.5,21.7,30.09,South,180,0.0,0.0,82,0.00,,,0.00,WeatherDisplay:10.37,2013-02-25 04:13:00,
2013-02-24 23:14:00,26.5,21.7,30.09,South,181,0.0,0.0,82,0.00,,,0.00,WeatherDisplay:10.37,2013-02-25 04:14:00,
2013-02-24 23:15:00,26.4,21.7,30.09,South,180,0.0,0.0,82,0.00,,,0.00,WeatherDisplay:10.37,2013-02-25 04:15:00,
2013-02-24 23:17:00,26.3,21.6,30.09,South,181,0.0,0.0,82,0.00,,,0.00,WeatherDisplay:10.37,2013-02-25 04:17:00,
2013-02-24 23:19:00,26.2,21.5,30.08,South,181,1.0,0.0,82,0.00,,,0.00,WeatherDisplay:10.37,2013-02-25 04:19:00,
2013-02-24 23:20:00,26.2,21.7,30.08,South,180,0.0,0.0,83,0.00,,,0.00,WeatherDisplay:10.37,2013-02-25 04:20:00,
2013-02-24 23:22:00,26.3,21.8,30.08,South,181,0.0,0.0,83,0.00,,,0.00,WeatherDisplay:10.37,2013-02-25 04:22:00,
2013-02-24 23:24:00,26.4,21.9,30.08,South,180,0.0,0.0,83,0.00,,,0.00,WeatherDisplay:10.37,2013-02-25 04:24:00,
2013-02-24 23:25:00,26.3,21.8,30.08,South,181,0.0,0.0,83,0.00,,,0.00,WeatherDisplay:10.37,2013-02-25 04:25:00,
2013-02-24 23:27:00,26.3,21.6,30.09,South,181,0.0,0.0,82,0.00,,,0.00,WeatherDisplay:10.37,2013-02-25 04:27:00,
2013-02-24 23:29:00,26.2,21.5,30.09,South,181,0.0,0.0,82,0.00,,,0.00,WeatherDisplay:10.37,2013-02-25 04:29:00,
2013-02-24 23:30:00,26.1,21.4,30.09,South,182,0.0,0.0,82,0.00,,,0.00,WeatherDisplay:10.37,2013-02-25 04:30:00,
2013-02-24 23:31:00,26.1,21.4,30.09,South,181,0.0,0.0,82,0.00,,,0.00,WeatherDisplay:10.37,2013-02-25 04:31:00,
2013-02-24 23:32:00,26.0,21.5,30.08,South,182,0.0,0.0,83,0.00,,,0.00,WeatherDisplay:10.37,2013-02-25 04:32:00,
2013-02-24 23:34:00,25.9,21.4,30.08,South,182,0.0,0.0,83,0.00,,,0.00,WeatherDisplay:10.37,2013-02-25 04:34:00,
2013-02-24 23:35:00,25.8,21.3,30.08,South,182,0.0,0.0,83,0.00,,,0.00,WeatherDisplay:10.37,2013-02-25 04:35:00,
2013-02-24 23:36:00,25.8,21.3,30.08,South,182,0.0,0.0,83,0.00,,,0.00,WeatherDisplay:10.37,2013-02-25 04:36:00,
2013-02-24 23:37:00,25.8,21.3,30.08,South,181,0.0,0.0,83,0.00,,,0.00,WeatherDisplay:10.37,2013-02-25 04:37:00,
2013-02-24 23:39:00,25.8,21.6,30.08,South,182,1.1,0.0,84,0.00,,,0.00,WeatherDisplay:10.37,2013-02-25 04:39:00,
2013-02-24 23:41:00,25.8,21.6,30.08,South,181,0.0,0.0,84,0.00,,,0.00,WeatherDisplay:10.37,2013-02-25 04:41:00,
2013-02-24 23:42:00,25.8,21.6,30.08,South,180,0.0,0.0,84,0.00,,,0.00,WeatherDisplay:10.37,2013-02-25 04:42:00,
2013-02-24 23:44:00,25.8,21.6,30.08,South,181,0.0,0.0,84,0.00,,,0.00,WeatherDisplay:10.37,2013-02-25 04:44:00,
2013-02-24 23:46:00,25.8,21.6,30.08,South,182,0.0,0.0,84,0.00,,,0.00,WeatherDisplay:10.37,2013-02-25 04:46:00,
2013-02-24 23:47:00,25.8,21.6,30.08,South,182,0.0,0.0,84,0.00,,,0.00,WeatherDisplay:10.37,2013-02-25 04:47:00,
2013-02-24 23:49:00,25.7,21.5,30.08,South,182,1.1,0.0,84,0.00,,,0.00,WeatherDisplay:10.37,2013-02-25 04:49:00,
2013-02-24 23:51:00,25.6,21.4,30.08,South,181,0.0,0.0,84,0.00,,,0.00,WeatherDisplay:10.37,2013-02-25 04:51:00,
2013-02-24 23:52:00,25.6,21.4,30.08,South,182,0.0,0.0,84,0.00,,,0.00,WeatherDisplay:10.37,2013-02-25 04:52:00,
2013-02-24 23:54:00,25.5,21.1,30.08,South,181,0.0,0.0,83,0.00,,,0.00,WeatherDisplay:10.37,2013-02-25 04:54:00,
2013-02-24 23:57:00,25.3,21.1,30.08,WNW,283,0.0,0.0,84,0.00,,,0.00,WeatherDisplay:10.37,2013-02-25 04:57:00,
2013-02-24 23:58:00,25.2,21.0,30.08,WNW,283,0.0,0.0,84,0.00,,,0.00,WeatherDisplay:10.37,2013-02-25 04:58:00,